[{"header": {"dx": 0.06612293990616946, "dy": 0.0552356325346848, "nx": 98, "ny": 59, "la1": 35.046912555036876, "la2": 31.78801023549047, "lo1": -121.43107172385933, "lo2": -114.95102361305473, "refTime": "2026041215", "parameterCategory": 1, "parameterNumber": 2}, "data": [5.36, 5.34, 5.7, 6.14, 6.04, 6.47, 6.47, 6.47, 6.94, 6.51, 6.04, 5.51, 5.09, 4.57, 4.57, 4.57, 4.22, 3.93, 4.46, 5.2, 5.6, 6.23, 6.02, 6.02, 6.07, 6.51, 6.94, 6.94, 6.28, 6.7, 6.4, 4.46, 1.26, -0.87, 0.0, 0.0, 1.13, 1.0, -0.0, -0.0, -0.0, 0.96, 2.6, 4.02, 6.28, 6.44, 7.06, 7.41, 7.35, 8.03, 7.68, 7.27, 7.97, 7.97, 7.97, 8.38, 8.68, 9.05, 9.27, 9.6, 9.03, 8.05, 6.44, 4.29, 4.29, 5.77, 7.44, 8.67, 9.65, 10.23, 10.23, 10.15, 8.55, 4.8, 1.26, 0.89, -1.79, -1.34, -1.79, -2.4, -2.4, -2.21, -2.21, -1.4, -1.2, -0.8, 0.0, 1.34, 2.24, 2.97, 4.0, 3.93, 3.93, 2.68, 0.87, -0.0, -0.0, -0.0, 5.36, 5.78, 5.7, 6.04, 6.47, 6.47, 6.47, 6.47, 6.94, 6.51, 6.04, 6.02, 4.85, 4.38, 4.77, 4.66, 4.0, 4.09, 4.09, 4.57, 5.2, 5.81, 6.23, 6.23, 5.29, 5.75, 6.2, 6.51, 6.28, 5.82, 5.06, 4.56, 3.35, 0.0, -0.88, 0.0, 0.0, 0.0, -1.0, -0.88, -0.0, 1.18, 2.66, 4.29, 5.77, 6.79, 7.44, 7.06, 7.06, 7.02, 7.02, 6.95, 7.27, 7.96, 7.96, 8.68, 8.68, 9.65, 9.27, 9.6, 8.63, 6.44, 4.74, 4.01, 4.74, 6.44, 8.05, 8.67, 9.27, 9.65, 10.23, 10.15, 7.35, 2.0, -2.24, -2.68, -3.13, -1.34, -1.79, -2.4, -2.4, -2.21, -2.21, -1.4, -1.2, -0.8, 0.0, 1.34, 2.24, 2.97, 4.0, 3.93, 3.93, 2.68, 0.87, -0.0, -0.0, -0.0, 5.78, 5.7, 6.14, 6.04, 6.47, 6.47, 6.47, 6.47, 6.51, 6.51, 6.47, 6.14, 5.31, 4.38, 3.6, 3.6, 4.0, 4.0, 4.0, 5.2, 4.57, 5.2, 6.23, 6.13, 6.64, 5.09, 5.29, 5.75, 5.59, 4.19, 3.33, 2.44, 3.06, 3.76, 2.68, 2.21, 1.2, 0.0, -0.0, -0.78, -0.0, 0.78, 3.47, 4.29, 5.06, 5.77, 6.44, 6.44, 6.39, 6.39, 6.64, 7.35, 7.35, 8.03, 7.95, 9.05, 9.05, 9.65, 10.0, 9.2, 7.44, 5.06, 4.01, 4.01, 5.77, 7.41, 8.03, 8.65, 9.3, 9.67, 9.67, 9.3, 5.82, 0.89, -2.97, -3.13, -3.13, -3.13, -3.04, -3.9, -3.9, -3.47, -2.6, -2.21, -1.49, -1.58, -0.95, 0.89, -0.0, 1.98, 1.8, 1.8, 0.87, -0.0, -0.0, -0.0, -0.0, -1.08, 5.78, 5.7, 6.16, 6.04, 6.47, 6.47, 6.51, 6.47, 6.47, 6.51, 6.6, 6.16, 5.59, 4.15, 3.6, 4.15, 4.38, 4.34, 3.95, 4.38, 4.82, 5.2, 5.64, 6.02, 6.7, 6.64, 5.51, 5.29, 3.9, 2.41, 1.72, 1.58, 1.6, 3.45, 5.03, 4.74, 5.36, 5.6, 2.53, -0.0, 0.83, 1.6, 2.76, 4.11, 4.81, 5.15, 5.77, 5.69, 5.69, 6.01, 6.35, 7.02, 7.41, 8.06, 8.42, 8.67, 9.6, 10.0, 9.6, 8.4, 5.77, 4.01, 4.01, 4.95, 6.24, 7.48, 8.12, 8.49, 8.79, 9.2, 9.62, 9.62, 5.82, -1.26, -3.47, -3.58, -3.58, -2.97, -3.39, -3.6, -4.15, -4.0, -2.98, -1.98, -1.2, -1.79, -1.58, -0.99, -0.0, -0.0, -0.0, -0.0, -1.2, -0.0, -0.0, -0.0, -0.0, -0.98, 6.23, 6.16, 6.16, 6.47, 6.47, 6.51, 6.61, 6.61, 6.6, 6.6, 6.6, 6.16, 5.59, 4.57, 4.15, 4.15, 4.41, 4.38, 4.02, 4.47, 5.36, 5.36, 5.36, 5.64, 5.09, 6.23, 5.75, 5.2, 3.6, 0.98, 0.78, 0.84, 1.65, 2.4, 4.71, 5.03, 6.32, 7.56, 5.69, 2.4, 1.65, 2.64, 3.22, 3.35, 4.11, 4.01, 4.95, 5.69, 5.69, 6.01, 6.73, 7.06, 7.41, 7.69, 8.06, 9.03, 9.6, 9.49, 8.95, 6.82, 4.43, 3.22, 4.42, 5.64, 5.51, 6.43, 7.25, 7.79, 8.56, 8.95, 9.48, 10.24, 7.96, 1.26, -4.02, -3.58, -4.02, -2.98, -1.9, -2.6, -3.74, -4.0, -2.98, -1.4, -1.26, -2.21, -2.53, -2.4, -1.83, -0.98, -0.98, -1.74, -1.58, -0.0, -0.0, -0.0, -0.99, -0.98, 6.23, 6.16, 6.6, 6.6, 6.61, 7.06, 7.06, 6.61, 6.23, 6.23, 6.23, 5.7, 5.59, 4.57, 4.82, 4.82, 4.82, 4.92, 4.47, 4.02, 4.47, 4.92, 5.7, 5.81, 5.2, 4.65, 4.74, 5.01, 4.11, 2.49, 2.35, 1.84, 1.72, 3.47, 4.74, 4.74, 5.43, 7.07, 5.77, 1.63, 1.55, 3.8, 4.03, 4.29, 3.47, 4.16, 5.24, 5.77, 5.43, 5.77, 6.06, 6.73, 7.06, 7.44, 8.4, 8.95, 9.33, 8.82, 7.89, 5.21, 2.95, 3.47, 3.88, 3.91, 4.81, 6.2, 7.13, 7.79, 8.66, 9.48, 9.62, 9.66, 9.66, 6.44, 0.89, -3.58, -3.13, -2.97, -1.9, -1.2, -2.97, -3.39, -2.6, -2.4, -2.97, -4.6, -4.54, -3.48, -2.84, -2.84, -2.84, -2.21, -1.58, -0.0, -0.0, -0.99, -0.99, -0.98, 6.23, 6.6, 6.61, 7.06, 7.06, 7.06, 7.13, 6.68, 6.23, 6.23, 5.78, 5.7, 6.2, 5.29, 5.36, 4.47, 4.92, 4.92, 4.92, 3.95, 3.95, 3.95, 4.47, 5.09, 5.01, 5.01, 5.36, 4.74, 4.47, 4.16, 3.68, 2.6, 2.6, 3.47, 4.43, 4.74, 5.06, 7.44, 5.37, 0.88, -0.0, 2.49, 3.6, 3.6, 3.6, 5.1, 6.01, 5.46, 4.43, 5.37, 6.32, 6.73, 7.41, 8.0, 8.14, 8.8, 8.33, 7.42, 5.59, 3.6, 2.0, 2.4, 3.07, 3.23, 4.65, 6.43, 7.79, 8.01, 8.93, 9.67, 9.6, 8.82, 8.82, 8.3, 4.38, 1.34, -2.0, -2.0, -2.0, -2.0, -2.0, -3.13, -3.13, -3.58, -4.85, -5.16, -5.75, -5.29, -4.38, -4.38, -3.2, -1.9, -0.0, -0.0, -1.13, -1.13, -0.99, -1.13, 6.68, 6.61, 7.06, 7.06, 7.07, 7.07, 7.06, 6.68, 6.68, 5.78, 5.7, 5.24, 5.75, 5.29, 5.36, 4.47, 4.92, 5.36, 4.92, 3.9, 3.39, 3.2, 2.98, 3.47, 4.02, 5.81, 5.2, 5.2, 4.74, 5.06, 3.49, -0.0, 1.41, 3.76, 4.43, 4.11, 4.46, 5.46, 5.37, 1.3, -0.0, -0.0, 1.23, 2.4, 3.6, 5.72, 5.59, 5.06, 4.16, 4.71, 6.01, 6.73, 7.41, 8.0, 7.71, 7.55, 6.71, 5.36, 3.13, 2.4, 1.84, 1.62, 2.34, 3.19, 4.87, 6.45, 8.12, 9.04, 9.49, 10.02, 9.8, 8.05, 7.15, 6.71, 4.47, 0.95, -1.0, -1.26, -1.58, -1.0, -0.8, -2.68, -3.58, -4.92, -5.77, -6.26, -6.71, -6.71, -5.81, -4.82, -2.8, -0.85, -0.0, -0.0, -0.0, -0.98, -0.99, -0.99, 6.68, 6.61, 7.06, 7.07, 7.51, 7.51, 7.07, 7.06, 6.6, 5.7, 5.7, 5.33, 6.26, 5.73, 5.29, 4.92, 5.36, 5.36, 4.92, 3.58, 4.02, 3.6, 2.98, 2.84, 3.58, 5.64, 5.36, 4.47, 5.2, 5.01, 2.2, -0.0, 1.41, 2.73, 4.19, 4.6, 4.66, 4.09, 3.79, -0.0, -0.0, -0.0, 1.3, 2.6, 3.68, 4.56, 4.66, 4.88, 4.92, 5.64, 6.64, 6.39, 7.06, 7.44, 6.44, 5.75, 4.47, 2.97, 2.0, 1.74, 1.6, 1.64, 2.41, 3.29, 5.0, 7.08, 9.0, 9.9, 9.83, 9.36, 8.33, 6.79, 6.7, 4.93, 3.51, 1.58, 0.0, 0.0, -0.85, -0.85, 0.0, -2.0, -3.58, -5.36, -6.71, -7.15, -7.6, -7.15, -5.31, -3.74, -1.6, -0.79, -0.0, -0.0, 0.88, -0.0, -0.0, -1.2, 6.61, 7.06, 7.07, 7.51, 7.51, 7.51, 7.07, 7.06, 6.6, 6.14, 5.78, 5.78, 5.36, 5.34, 6.2, 5.81, 5.81, 5.36, 5.2, 4.24, 4.24, 3.72, 3.16, 2.48, 2.98, 4.46, 4.92, 4.02, 4.09, 4.65, 1.55, -0.0, 1.4, 3.2, 4.09, 5.2, 4.24, 2.21, 1.55, 1.19, -0.0, 0.88, 1.66, 2.0, 3.22, 3.2, 4.12, 4.83, 6.31, 6.53, 6.64, 6.24, 6.24, 5.49, 4.83, 3.63, 1.79, 0.0, 0.0, 0.78, 1.54, 1.55, 2.06, 4.06, 5.72, 7.36, 9.0, 8.93, 8.01, 6.44, 5.49, 4.74, 4.43, 3.84, 2.21, 0.8, 0.0, 0.0, 0.0, -0.76, 0.0, 0.85, -1.26, -3.47, -5.36, -6.71, -6.66, -5.77, -4.4, -2.41, -0.88, -0.0, -0.0, -0.0, 1.66, 0.98, -0.0, -1.58, 6.61, 7.06, 7.07, 7.51, 7.51, 7.51, 7.07, 7.06, 6.68, 6.23, 5.78, 5.78, 5.34, 5.36, 6.71, 6.71, 6.71, 5.78, 5.7, 5.09, 5.2, 4.6, 3.93, 3.16, 2.73, 3.72, 4.02, 3.2, 3.6, 4.09, 3.16, 1.58, 1.34, 2.24, 3.13, 4.77, 2.73, -0.0, 0.98, 1.66, 1.66, 0.98, 0.98, 1.55, 1.41, 2.35, 4.03, 5.1, 6.01, 5.69, 5.38, 4.87, 4.75, 3.91, 3.07, 3.29, 0.83, 0.0, 1.34, -0.0, 0.81, 1.61, 2.39, 4.0, 5.55, 7.13, 7.25, 6.2, 3.63, 0.85, 0.76, 1.45, 2.11, 1.6, 0.0, 0.0, 0.0, 0.0, 0.0, 0.0, 0.0, 1.9, 3.47, 1.9, 0.89, -1.26, -2.6, -3.6, -2.84, -2.3, -1.49, -0.0, -0.0, -0.0, 1.9, 1.2, -0.0, -2.24, 6.68, 7.06, 7.07, 7.51, 7.51, 7.51, 7.07, 7.13, 6.68, 6.23, 5.78, 5.78, 5.34, 5.36, 5.81, 6.71, 7.15, 7.15, 6.68, 6.6, 6.04, 5.4, 4.4, 5.2, 4.09, 4.24, 4.02, 2.6, 3.13, 3.58, 3.58, 2.24, 0.89, 1.34, 1.79, 2.4, 1.6, 0.87, 0.87, 2.0, 1.83, 1.66, 0.88, -0.0, -0.0, 1.63, 2.69, 4.96, 5.03, 3.4, 2.31, 3.14, 3.17, 1.54, 1.58, 2.43, 4.91, 4.12, 0.89, -0.0, 0.79, 1.61, 1.55, 2.33, 3.98, 4.7, 4.74, 3.96, 3.98, 3.25, 2.3, 0.0, -0.66, -1.6, -2.4, -1.26, 0.89, 0.45, 0.89, 0.89, 1.34, 3.13, 5.29, 4.92, 5.64, 6.54, 5.05, 0.85, -1.98, -3.16, -2.41, -1.9, -1.26, 0.89, 1.34, 0.89, -2.24, -2.97, 6.68, 7.06, 7.07, 7.51, 7.51, 7.51, 7.58, 7.13, 6.68, 6.23, 6.23, 5.78, 5.78, 5.34, 5.81, 6.71, 7.15, 7.6, 7.58, 7.13, 7.06, 6.47, 5.81, 5.57, 5.09, 4.77, 4.02, 3.13, 2.68, 2.6, 3.47, 2.54, 1.79, 1.34, 0.45, -0.0, -0.0, -0.0, 0.99, 1.8, 0.96, 0.81, -0.0, -0.0, -0.0, -0.0, 1.14, 3.35, 3.35, 2.33, 1.5, 1.45, -0.0, -0.0, -0.0, 1.15, 4.47, 7.88, 3.25, -0.8, -0.0, 1.6, 0.8, 0.79, 0.79, 0.8, 1.47, 2.44, 4.08, 7.95, 8.86, 7.24, 3.58, -1.2, -2.98, -2.4, -1.34, 0.45, 1.79, 2.24, 2.68, 4.82, 6.28, 6.82, 7.41, 9.0, 8.3, 4.43, -0.76, -3.49, -3.49, -2.86, -2.54, -1.79, -1.79, -2.4, -2.98, -3.47, 6.68, 7.06, 7.07, 7.51, 7.58, 7.58, 7.58, 7.13, 6.68, 6.23, 6.23, 6.23, 5.78, 5.34, 5.78, 6.71, 7.15, 7.6, 7.6, 7.58, 7.51, 7.07, 6.94, 6.3, 6.3, 6.47, 5.7, 4.88, 3.82, 3.6, 3.87, 3.58, 3.13, 1.79, -0.0, -0.0, -0.0, -0.0, 1.98, 1.8, 0.88, -0.0, -0.0, -0.0, -1.3, -0.0, -0.0, 2.49, 2.21, 1.2, 1.2, -0.0, -1.2, -1.05, -0.0, 0.77, 3.61, 7.68, 4.58, -0.79, -0.8, -0.0, -0.0, -0.0, -0.0, -0.0, -0.0, -0.0, 3.25, 6.52, 9.39, 10.25, 10.9, 6.26, 0.0, -2.24, 1.2, 3.48, 5.82, 6.28, 6.65, 6.98, 5.86, 3.83, 6.01, 7.97, 7.9, 4.12, -0.0, -3.83, -4.46, -4.46, -4.66, -4.38, -3.58, -3.9, -3.9, -4.38, 6.68, 7.13, 7.13, 7.58, 7.58, 7.58, 7.58, 7.13, 6.68, 6.23, 6.23, 5.7, 5.7, 5.78, 5.78, 6.68, 7.15, 7.6, 7.6, 7.6, 7.58, 7.58, 7.51, 7.4, 6.79, 6.79, 6.94, 6.47, 5.99, 5.51, 4.88, 4.02, 4.47, 4.02, 1.9, -0.0, -0.0, 1.13, 3.16, 1.8, 0.98, -0.0, -0.0, -0.0, -0.0, -0.0, -0.0, 1.14, 1.18, 1.18, 1.18, -0.0, -1.23, -1.14, -0.0, -0.0, 2.26, 5.18, 4.92, -0.0, -3.21, -2.39, -1.14, -1.14, -0.0, -0.0, -0.0, 1.16, 3.6, 6.01, 7.97, 10.87, 12.37, 9.8, 4.47, 1.99, 4.83, 8.22, 9.62, 10.87, 11.09, 9.49, 5.59, 0.89, -0.89, 4.54, 5.06, 3.33, -0.0, -3.58, -4.84, -4.84, -5.34, -5.16, -4.38, -4.02, -4.47, -4.47, 6.68, 7.13, 7.13, 7.58, 7.58, 7.58, 7.58, 7.13, 6.68, 5.79, 5.78, 5.7, 5.7, 5.78, 6.23, 6.68, 7.15, 7.6, 7.6, 7.6, 7.6, 7.58, 7.58, 7.51, 7.4, 7.4, 7.4, 7.69, 7.69, 7.69, 6.68, 5.33, 4.77, 4.77, 2.53, -0.0, -0.0, 1.13, 2.84, 2.48, 0.98, 0.98, -0.0, -0.0, -0.0, -0.0, -0.0, -0.0, -0.0, -0.0, -0.0, -0.0, -0.0, -1.3, -0.0, -0.0, -0.0, 2.26, 3.52, -0.0, -2.51, -4.75, -3.68, -3.68, -2.32, -0.0, -0.0, 2.4, 4.96, 6.87, 8.3, 11.08, 12.05, 9.54, 6.32, 6.33, 8.84, 10.34, 11.87, 12.52, 12.51, 11.28, 6.0, -1.26, -2.97, -2.4, 1.26, -0.0, -0.0, -2.68, -3.93, -4.66, -5.16, -3.74, -2.97, -3.47, -4.02, -4.02, 6.68, 7.13, 7.13, 7.58, 7.58, 7.6, 7.6, 7.15, 6.23, 5.78, 5.78, 5.78, 5.78, 5.78, 6.23, 6.68, 7.15, 7.6, 7.6, 7.6, 8.05, 8.05, 8.03, 8.03, 7.97, 7.97, 7.87, 8.17, 8.64, 9.07, 8.42, 7.13, 5.51, 5.4, 3.83, 2.41, 1.8, 1.8, 1.8, 1.27, 1.41, 0.98, 1.41, 0.87, -0.0, -0.0, -0.0, -0.0, -0.0, -0.0, -0.0, -0.0, -0.0, -0.0, -0.0, -0.0, -0.0, -0.0, 1.27, -0.0, -1.14, -4.11, -4.11, -4.46, -4.09, -2.41, -1.3, -0.0, 4.96, 9.48, 11.11, 10.28, 11.15, 10.15, 8.85, 8.56, 10.34, 11.76, 12.87, 12.52, 12.52, 12.52, 9.05, 1.34, -3.6, -2.54, -1.79, -1.8, -1.83, -1.8, -1.9, -3.47, -4.38, -3.47, -2.68, -2.12, -3.04, -3.04, 6.68, 7.13, 7.15, 7.6, 7.6, 7.6, 7.15, 6.71, 6.23, 5.78, 5.78, 5.78, 5.78, 5.78, 6.23, 6.26, 6.71, 7.15, 7.6, 7.6, 8.05, 8.05, 8.03, 8.03, 8.03, 7.97, 7.97, 7.87, 8.3, 9.11, 9.23, 8.05, 6.6, 5.4, 4.55, 4.19, 2.95, 2.73, 1.27, 1.8, 1.41, 1.41, 1.8, 1.8, -0.0, -0.0, -0.0, -0.0, -0.0, 1.6, 1.6, -0.0, -0.0, -0.0, -0.0, -0.0, -0.0, -0.0, -0.0, -0.0, -1.08, -2.73, -2.73, -3.72, -3.72, -3.22, -2.68, -0.0, 5.01, 10.6, 12.75, 11.06, 11.37, 11.83, 10.91, 10.28, 11.28, 12.89, 13.51, 12.89, 12.13, 11.88, 11.75, 1.0, -2.0, -1.0, -0.0, -1.66, -1.66, -0.0, -0.0, -0.0, -2.68, -2.68, -2.24, -1.79, -1.79, -1.79, 6.68, 7.15, 7.6, 7.6, 7.6, 7.15, 7.15, 6.71, 6.26, 5.78, 5.78, 5.78, 5.78, 5.78, 5.78, 7.15, 6.26, 7.15, 7.15, 7.6, 8.05, 8.05, 7.58, 8.05, 7.6, 8.05, 6.6, 7.55, 7.89, 7.87, 8.33, 8.47, 7.6, 6.47, 5.47, 4.37, 3.78, 3.16, 2.84, 2.84, 1.98, 1.98, 1.8, 1.6, 1.4, 2.21, -0.0, -0.0, -0.0, 1.27, 1.41, 1.41, 1.55, -0.0, -0.0, -0.0, -0.0, -0.0, -0.0, -0.0, -0.0, -1.41, -1.41, -2.41, -3.16, -3.16, -2.41, -0.0, 4.02, 8.94, 11.57, 12.09, 14.21, 14.7, 13.49, 11.51, 11.06, 11.96, 13.05, 13.29, 12.58, 12.3, 11.06, 6.71, 3.13, 1.2, 0.98, 0.79, -0.87, -0.0, 2.0, 3.58, 1.79, -0.89, -1.34, 0.89, 0.89, 0.89, 7.15, 7.15, 7.6, 7.15, 7.15, 7.15, 7.15, 6.71, 5.81, 5.78, 5.34, 5.34, 5.78, 5.78, 6.23, 6.26, 6.71, 6.71, 7.6, 7.6, 8.05, 7.15, 7.13, 7.55, 7.55, 7.55, 7.55, 6.68, 7.13, 7.51, 8.41, 8.86, 8.49, 8.03, 6.47, 4.9, 3.88, 3.35, 3.07, 2.68, 2.5, 2.15, 1.9, 1.9, 1.86, 2.21, 2.21, 2.21, 1.6, 1.8, 1.41, 2.73, 1.55, 1.3, 1.66, 1.66, 1.41, 0.99, 0.85, -0.0, -0.0, -1.6, -1.27, -2.48, -2.41, -2.84, -0.99, 1.58, 4.92, 7.56, 9.83, 11.6, 14.75, 16.07, 14.57, 11.87, 10.55, 10.55, 12.04, 12.52, 12.94, 12.94, 12.04, 9.8, 7.11, 4.22, 3.16, 3.79, 0.99, -0.0, 2.4, 5.29, 4.92, 2.24, 0.89, 1.34, 1.34, 1.34, 7.15, 7.15, 7.15, 7.15, 7.15, 7.15, 6.71, 6.26, 5.81, 5.34, 5.34, 5.34, 5.78, 5.78, 6.26, 6.26, 6.71, 6.71, 7.15, 8.05, 8.05, 7.15, 7.15, 7.13, 7.58, 7.58, 7.58, 7.58, 8.03, 8.03, 8.47, 8.92, 9.37, 8.94, 8.03, 6.68, 4.77, 3.6, 3.6, 3.82, 3.32, 2.8, 2.15, 2.4, 2.4, 3.2, 2.21, 2.21, 2.53, 1.6, 2.84, 2.48, 1.55, 1.55, 2.4, 2.53, 3.48, 2.84, 2.53, -0.0, -0.0, -0.0, -1.41, -2.48, -1.98, -1.98, -1.2, 1.9, 5.29, 7.11, 8.46, 10.93, 13.76, 14.11, 11.83, 10.28, 8.53, 8.93, 9.65, 10.93, 12.07, 12.86, 12.3, 10.52, 8.8, 6.94, 5.75, 6.4, 7.98, 3.95, 3.47, 4.92, 5.81, 3.58, 2.24, 2.24, 2.12, 2.12, 7.15, 7.15, 7.15, 7.15, 7.15, 7.15, 6.71, 6.26, 5.81, 5.34, 5.33, 5.34, 5.78, 5.79, 6.26, 6.26, 6.71, 6.71, 7.15, 7.6, 8.05, 8.05, 8.05, 8.05, 8.05, 8.03, 8.03, 8.05, 8.05, 8.49, 8.49, 8.94, 9.39, 9.39, 9.39, 8.49, 6.23, 4.77, 3.87, 3.87, 3.82, 3.07, 3.07, 2.5, 2.8, 2.4, 3.2, 3.2, 2.8, 3.2, 2.84, 3.16, 2.48, 2.73, 2.73, 2.98, 3.63, 4.11, 3.6, 2.24, -0.0, -0.0, -0.98, -1.8, -0.87, -0.99, -0.0, 1.0, 2.68, 3.45, 4.66, 8.51, 11.87, 9.24, 0.79, 4.96, 6.29, 7.09, 7.22, 7.95, 10.14, 11.15, 12.09, 11.87, 10.68, 8.3, 6.8, 7.35, 8.14, 7.01, 4.47, 3.47, 4.02, 3.58, 2.24, 2.54, 3.58, 3.58, 7.15, 7.15, 7.15, 7.15, 7.15, 7.15, 6.26, 5.81, 5.81, 5.33, 5.33, 5.34, 5.81, 5.81, 6.26, 6.26, 6.71, 6.71, 7.15, 7.6, 8.05, 8.05, 8.05, 8.05, 8.05, 8.05, 8.05, 8.05, 8.05, 8.05, 8.49, 8.94, 9.39, 9.39, 9.39, 9.83, 8.92, 7.06, 5.24, 4.77, 4.3, 3.6, 3.35, 3.6, 3.07, 3.07, 3.82, 3.2, 2.8, 3.2, 3.6, 2.84, 3.16, 2.73, 2.73, 2.98, 3.22, 4.58, 4.84, 1.79, -0.0, 0.79, -0.0, -0.0, -0.0, -0.0, -0.0, -0.0, -0.0, -0.0, 1.16, 4.72, 12.89, 1.8, -4.43, 0.0, 2.9, 4.4, 4.96, 5.86, 7.07, 9.24, 10.7, 11.84, 11.37, 9.9, 8.4, 7.82, 8.0, 8.05, 3.84, 1.34, 1.79, 1.79, 1.79, 2.68, 4.02, 4.02, 7.15, 7.15, 7.15, 7.15, 7.15, 6.71, 6.26, 5.81, 5.36, 5.33, 5.33, 5.36, 5.81, 5.81, 6.26, 6.26, 6.26, 6.71, 7.15, 7.6, 7.6, 8.05, 8.05, 8.05, 8.05, 8.05, 8.05, 8.05, 8.05, 8.05, 8.05, 8.49, 8.94, 9.37, 9.37, 9.82, 9.82, 9.32, 7.97, 6.6, 5.24, 4.11, 4.0, 4.0, 3.88, 3.35, 4.09, 4.24, 3.82, 4.24, 4.24, 3.72, 3.72, 3.16, 2.73, 2.73, 2.53, 4.29, 5.36, 3.2, -0.0, 0.88, 1.83, 0.88, -0.0, 0.76, -0.0, -0.0, -0.0, -0.76, -0.0, 10.18, 16.31, 14.11, 6.52, 0.0, 1.25, 2.46, 3.3, 3.51, 5.21, 7.07, 8.67, 9.81, 10.7, 9.97, 8.82, 7.89, 7.42, 8.05, 5.77, 2.6, 0.0, 0.45, 0.89, 2.68, 3.58, 3.58, 7.15, 7.15, 7.15, 7.15, 7.15, 7.15, 6.26, 5.81, 5.36, 5.33, 5.34, 5.34, 5.81, 5.81, 6.26, 6.26, 6.26, 6.71, 6.71, 7.15, 7.6, 8.05, 8.05, 8.05, 8.05, 8.05, 8.05, 8.05, 8.05, 8.05, 8.05, 8.05, 8.49, 8.92, 8.92, 9.37, 9.37, 9.82, 9.77, 8.87, 7.4, 5.31, 4.37, 4.41, 4.55, 4.4, 4.52, 4.11, 4.11, 4.11, 4.11, 4.8, 4.09, 3.72, 3.48, 2.73, 2.73, 4.19, 5.06, 3.49, 1.3, 1.55, 1.83, 1.66, 0.98, 0.73, 0.82, 0.78, 0.83, 0.85, 4.15, 6.98, 11.5, 14.08, 16.11, 10.63, 3.83, 1.73, 2.21, 2.54, 3.8, 5.21, 6.7, 7.98, 8.45, 8.45, 7.85, 6.7, 5.82, 6.08, 7.35, 6.07, 2.24, 1.34, 0.45, 1.34, 2.24, 2.24, 7.15, 7.15, 7.15, 7.15, 7.13, 6.71, 6.26, 5.81, 5.36, 5.36, 5.36, 5.34, 5.78, 5.81, 6.26, 6.26, 6.26, 6.71, 6.71, 7.15, 7.6, 7.6, 8.05, 8.05, 8.05, 8.05, 8.05, 8.05, 8.05, 8.05, 7.6, 8.05, 8.05, 8.49, 8.47, 8.92, 8.92, 9.37, 9.77, 9.77, 9.32, 7.74, 5.75, 4.71, 5.21, 5.08, 4.8, 4.6, 4.6, 4.6, 4.6, 4.6, 4.8, 4.09, 4.46, 3.79, 3.48, 3.79, 3.76, 3.68, 3.68, 3.68, 2.76, 2.53, 1.7, 1.63, 1.65, 1.65, 1.72, 2.0, 3.16, 5.06, 6.64, 10.51, 13.67, 16.01, 8.49, 0.0, 0.0, 1.73, 2.54, 3.91, 4.56, 5.46, 6.07, 6.71, 6.02, 5.6, 4.11, 3.72, 5.59, 8.58, 6.0, 1.34, -0.89, 0.89, -0.0, -0.0, 7.13, 7.13, 7.13, 7.13, 7.13, 6.71, 6.26, 5.81, 5.36, 5.36, 5.36, 5.36, 5.81, 5.81, 5.81, 6.26, 6.26, 6.71, 6.71, 7.15, 7.15, 7.6, 8.05, 8.05, 8.05, 8.05, 8.05, 8.05, 8.05, 8.05, 8.05, 8.05, 7.6, 8.05, 8.05, 8.05, 8.49, 8.47, 8.92, 8.87, 9.37, 8.87, 8.17, 5.86, 5.49, 6.0, 5.4, 5.09, 5.02, 4.6, 4.6, 4.6, 4.11, 4.11, 4.19, 4.19, 3.79, 3.79, 3.48, 3.22, 3.68, 5.06, 5.06, 2.6, 2.4, 1.55, 1.65, 0.88, 0.81, 1.7, 3.22, 4.29, 5.69, 7.97, 10.51, 15.13, 14.49, 3.2, -3.11, 0.0, 1.72, 2.47, 3.22, 3.84, 4.22, 4.47, 4.57, 3.79, 3.22, 3.47, 5.0, 7.94, 10.04, 6.4, 2.54, 1.26, 2.0, 2.0, 6.68, 6.68, 6.68, 6.68, 6.68, 6.26, 5.81, 5.81, 5.81, 5.36, 5.36, 5.36, 5.36, 5.81, 5.81, 6.26, 6.26, 6.71, 6.71, 6.71, 7.15, 7.6, 7.6, 7.6, 7.6, 7.6, 7.6, 7.6, 7.6, 8.05, 8.05, 8.05, 8.05, 8.05, 8.05, 8.05, 8.49, 8.49, 8.47, 8.92, 8.86, 8.42, 7.87, 6.79, 6.1, 6.0, 6.23, 5.99, 5.7, 5.24, 5.24, 4.77, 4.6, 4.52, 4.0, 4.54, 4.11, 3.79, 3.48, 3.22, 4.74, 5.82, 4.43, 2.35, 2.4, 2.4, 1.7, 0.99, 0.87, 2.4, 4.16, 5.43, 5.82, 6.7, 9.24, 13.65, 17.15, 10.93, 0.0, -1.83, 0.0, 1.41, 2.07, 1.6, 1.74, 1.9, 2.0, 2.53, 3.9, 5.24, 6.32, 9.04, 11.28, 10.73, 8.4, 6.79, 5.86, 5.86, 6.68, 6.68, 6.68, 6.68, 6.68, 6.26, 5.81, 5.81, 5.81, 5.81, 5.36, 5.36, 5.36, 5.81, 5.81, 6.26, 6.26, 6.71, 6.68, 6.68, 7.13, 7.13, 7.58, 7.58, 7.58, 7.07, 7.13, 7.58, 7.6, 7.6, 7.6, 8.05, 8.05, 8.05, 8.05, 8.05, 8.05, 8.49, 8.47, 8.47, 8.42, 7.97, 7.51, 7.42, 6.7, 5.6, 5.81, 5.99, 5.7, 5.7, 5.24, 5.24, 4.6, 4.6, 4.8, 4.37, 5.01, 4.65, 3.35, 4.11, 5.82, 5.82, 3.11, 1.73, 2.51, 2.47, 1.6, 1.8, 1.74, 2.95, 5.06, 6.79, 7.35, 7.6, 9.97, 13.29, 15.56, 16.01, 11.96, 4.57, 0.0, 0.66, 1.88, 2.23, 1.9, 0.8, 1.34, 2.68, 5.06, 6.73, 8.03, 9.67, 10.99, 12.33, 11.3, 10.0, 8.8, 8.8, 6.68, 6.68, 6.68, 6.68, 6.23, 5.81, 5.81, 5.81, 5.81, 5.81, 5.81, 5.36, 5.81, 5.81, 6.26, 6.26, 6.68, 6.68, 6.61, 7.06, 7.06, 7.06, 6.94, 6.94, 6.94, 7.06, 7.06, 7.06, 7.13, 7.13, 7.6, 7.6, 8.05, 8.05, 8.05, 8.05, 8.05, 8.05, 8.03, 8.47, 8.41, 7.97, 7.51, 7.06, 6.47, 6.7, 6.28, 5.51, 5.57, 5.7, 5.7, 5.7, 5.24, 5.09, 4.9, 4.55, 4.37, 4.07, 4.11, 4.84, 5.82, 4.81, 3.11, 2.6, 1.7, -0.0, -0.0, 2.54, 3.63, 2.95, 4.43, 6.73, 9.6, 11.06, 11.66, 12.7, 12.8, 13.32, 16.01, 14.73, 9.06, 4.41, 4.27, 4.88, 5.36, 5.36, 5.16, 6.0, 6.7, 7.92, 8.93, 10.28, 11.3, 12.86, 12.33, 11.3, 10.4, 10.4, 6.68, 6.68, 6.68, 6.23, 5.81, 5.81, 5.36, 5.81, 5.81, 5.81, 5.81, 5.81, 5.81, 5.81, 6.26, 6.68, 6.68, 7.06, 7.06, 6.94, 6.94, 6.51, 6.51, 6.51, 6.51, 6.51, 6.6, 6.6, 6.6, 6.68, 7.13, 7.15, 7.6, 7.6, 8.05, 8.05, 8.05, 8.03, 8.03, 8.03, 7.97, 7.97, 7.51, 7.06, 6.61, 6.98, 6.7, 5.4, 5.99, 6.04, 6.04, 6.04, 6.04, 5.57, 5.31, 4.93, 4.55, 4.07, 4.07, 4.84, 5.21, 4.81, 4.11, 2.76, 0.88, -1.7, -1.63, 2.54, 4.71, 5.06, 3.79, 5.77, 9.6, 13.49, 14.73, 12.09, 9.49, 9.24, 11.4, 15.65, 14.3, 9.74, 7.51, 8.05, 9.32, 10.13, 9.86, 10.1, 9.34, 9.45, 10.0, 9.7, 10.09, 11.2, 12.79, 11.85, 11.04, 11.04, 6.68, 6.68, 6.23, 6.23, 5.81, 5.36, 5.36, 5.81, 5.81, 5.81, 5.81, 5.81, 5.81, 6.23, 6.23, 6.68, 7.06, 7.06, 6.94, 6.94, 6.47, 6.47, 6.47, 6.6, 6.6, 6.6, 6.16, 6.14, 6.65, 5.78, 6.23, 6.71, 7.15, 7.6, 7.6, 8.05, 8.03, 8.03, 8.03, 8.03, 7.97, 7.97, 7.51, 7.13, 7.13, 6.61, 6.47, 6.47, 6.04, 6.47, 6.6, 6.47, 6.47, 6.04, 5.81, 5.31, 4.55, 4.37, 4.37, 4.55, 5.43, 5.21, 3.48, 3.07, 1.66, -0.88, -2.53, -0.0, 4.74, 6.52, 4.84, 6.16, 8.17, 12.6, 16.96, 12.07, 4.15, 3.58, 6.8, 11.42, 13.41, 11.62, 9.39, 9.37, 10.66, 10.94, 11.08, 11.08, 11.37, 10.1, 9.34, 7.85, 7.32, 9.45, 11.99, 11.6, 11.2, 11.2, 6.26, 6.26, 6.26, 5.81, 5.36, 5.36, 5.36, 5.81, 5.81, 5.81, 5.81, 5.81, 5.81, 6.23, 6.68, 7.06, 7.06, 6.94, 6.94, 6.47, 6.47, 6.16, 6.16, 6.16, 6.16, 6.16, 6.16, 5.7, 5.7, 6.21, 5.34, 6.26, 6.71, 7.15, 7.6, 7.58, 8.03, 8.03, 8.03, 7.58, 8.03, 7.97, 7.51, 7.58, 7.13, 6.68, 6.6, 6.04, 6.04, 6.16, 6.16, 6.16, 6.04, 5.99, 5.81, 5.31, 4.55, 4.37, 4.55, 4.55, 5.08, 4.6, 3.79, 3.48, 2.76, 0.81, -0.87, -0.0, 3.6, 6.23, 6.16, 6.2, 6.71, 10.25, 17.44, 15.35, 5.09, 1.2, 4.84, 8.48, 10.7, 10.7, 9.81, 9.36, 9.32, 9.68, 10.47, 10.47, 10.93, 9.33, 7.35, 5.09, 5.09, 6.9, 9.34, 11.75, 10.53, 10.53, 6.26, 6.26, 5.81, 5.81, 5.36, 5.36, 5.36, 5.81, 5.81, 6.26, 5.81, 5.81, 5.81, 6.23, 6.61, 7.06, 6.94, 6.94, 6.47, 6.47, 5.99, 5.57, 5.7, 6.14, 6.16, 6.23, 5.78, 5.78, 5.78, 5.34, 5.36, 5.81, 6.26, 6.71, 7.15, 7.58, 7.58, 7.58, 7.58, 7.58, 7.58, 7.52, 7.51, 7.58, 7.13, 7.13, 6.6, 6.14, 5.7, 5.7, 5.78, 5.7, 6.14, 5.99, 5.99, 5.31, 4.9, 4.8, 4.8, 4.8, 5.75, 4.65, 3.79, 4.11, 3.35, 2.76, 2.0, 1.0, 3.13, 4.77, 4.84, 5.6, 6.14, 8.46, 14.4, 17.79, 13.11, 7.11, 5.34, 7.2, 8.19, 8.49, 8.46, 8.46, 7.92, 7.51, 8.3, 8.77, 8.19, 6.7, 5.2, 3.84, 3.84, 5.6, 7.47, 10.0, 9.45, 9.45, 5.81, 5.81, 5.81, 5.36, 5.36, 5.36, 5.36, 5.81, 5.81, 6.26, 6.26, 6.26, 6.26, 6.23, 6.68, 7.51, 7.4, 6.94, 6.3, 5.81, 5.57, 5.51, 5.67, 5.7, 5.78, 5.78, 5.81, 5.36, 5.36, 5.36, 5.36, 5.81, 6.26, 6.71, 7.15, 7.6, 7.58, 7.58, 7.58, 7.58, 7.58, 7.51, 7.51, 7.58, 7.13, 7.13, 6.61, 6.16, 5.7, 5.24, 5.33, 5.34, 5.78, 5.7, 5.57, 5.51, 5.09, 5.02, 4.4, 4.55, 4.55, 5.75, 5.01, 5.01, 3.76, 3.79, 2.84, 1.9, 1.74, 2.53, 2.98, 4.02, 6.52, 9.24, 11.87, 15.24, 16.39, 13.89, 10.7, 7.89, 5.34, 4.41, 4.92, 5.77, 6.07, 5.99, 5.99, 6.16, 5.2, 4.8, 4.8, 4.8, 4.8, 5.34, 6.0, 7.06, 8.4, 8.4, 5.81, 5.81, 5.81, 5.36, 5.36, 5.36, 5.36, 5.81, 5.81, 6.26, 6.26, 6.26, 6.23, 6.68, 7.06, 7.51, 7.4, 6.79, 6.3, 5.81, 5.09, 5.24, 4.8, 5.33, 5.36, 5.36, 5.36, 5.36, 5.36, 4.92, 5.36, 5.36, 5.81, 6.26, 6.71, 7.15, 7.15, 7.58, 7.58, 7.58, 7.58, 7.58, 7.51, 7.58, 7.13, 6.68, 6.68, 6.16, 5.7, 5.33, 5.33, 5.36, 5.36, 5.34, 5.7, 5.67, 5.09, 4.6, 4.4, 4.8, 5.08, 4.65, 5.75, 4.54, 4.54, 4.09, 1.9, 1.2, -0.0, 0.82, 1.1, 2.35, 6.01, 9.03, 10.95, 12.04, 13.99, 15.59, 15.61, 10.98, 4.92, 2.0, 2.24, 3.04, 3.74, 3.83, 4.22, 4.6, 4.8, 5.34, 5.75, 6.28, 6.02, 6.45, 6.36, 7.28, 7.73, 7.73, 5.81, 5.81, 5.36, 5.36, 5.36, 5.36, 5.36, 5.81, 5.81, 5.81, 6.26, 6.26, 6.68, 6.68, 7.07, 7.51, 7.4, 6.79, 6.3, 5.31, 5.09, 4.77, 4.44, 4.47, 4.92, 5.36, 5.36, 5.33, 5.33, 4.92, 4.92, 5.36, 5.81, 6.26, 6.71, 7.15, 7.15, 7.15, 7.15, 7.58, 7.13, 7.13, 7.07, 8.01, 6.68, 6.71, 6.68, 6.23, 6.14, 5.34, 4.92, 4.92, 4.92, 5.36, 5.33, 5.33, 4.77, 4.6, 4.4, 4.8, 5.08, 5.21, 5.75, 4.54, 4.84, 4.8, 2.6, -0.0, -0.0, -0.0, 0.78, 1.63, 4.71, 9.08, 10.66, 11.09, 12.3, 14.7, 16.53, 13.21, 6.79, 2.12, 1.34, 1.26, 1.74, 3.22, 3.84, 4.6, 5.75, 6.28, 6.7, 6.98, 7.42, 7.55, 7.56, 8.01, 8.46, 8.19, 5.81, 5.81, 5.81, 5.36, 5.36, 5.36, 5.36, 5.81, 5.81, 5.81, 6.23, 6.23, 6.68, 7.13, 7.07, 7.51, 7.51, 7.37, 6.3, 4.8, 3.88, 3.6, 3.82, 3.98, 4.47, 4.89, 5.33, 5.24, 5.33, 5.33, 5.36, 5.36, 5.36, 6.26, 6.71, 6.71, 6.71, 7.15, 7.15, 7.15, 7.15, 7.13, 7.13, 8.01, 6.68, 6.71, 6.26, 6.26, 5.78, 5.33, 4.89, 4.92, 4.92, 4.92, 5.36, 5.36, 4.77, 4.11, 4.4, 4.8, 5.47, 5.21, 6.52, 4.84, 4.84, 4.8, 2.73, 0.81, -0.0, -0.0, -0.0, -0.0, 3.7, 7.82, 11.9, 12.47, 12.37, 13.39, 12.96, 9.28, 4.22, 1.9, 2.0, 0.8, 0.85, 3.22, 4.4, 4.8, 6.02, 6.51, 6.98, 7.55, 8.01, 8.05, 7.6, 7.15, 7.11, 8.46, 5.81, 5.81, 5.81, 5.36, 5.36, 5.36, 5.36, 5.78, 5.78, 5.79, 6.23, 6.23, 6.68, 7.06, 7.51, 7.51, 7.4, 7.4, 6.3, 4.55, 3.43, 2.84, 3.07, 3.13, 3.39, 4.34, 4.8, 5.24, 5.24, 5.33, 5.33, 5.36, 5.81, 6.26, 6.26, 6.71, 6.71, 6.71, 7.15, 7.15, 6.71, 6.71, 6.71, 7.13, 8.01, 6.71, 6.26, 5.81, 5.33, 5.24, 4.89, 4.92, 4.92, 4.92, 4.92, 4.92, 4.77, 4.52, 4.8, 4.9, 5.47, 5.21, 5.21, 6.13, 5.01, 3.79, 2.68, 0.81, 0.82, 0.78, -0.0, -0.0, 1.11, 5.69, 10.17, 13.12, 14.11, 12.98, 8.8, 2.24, -1.79, 0.45, 0.89, -0.0, 0.8, 2.6, 3.74, 5.09, 5.59, 6.07, 7.11, 7.56, 7.6, 6.71, 5.31, 4.38, 3.74, 7.11, 5.81, 5.81, 5.81, 5.36, 5.36, 5.36, 5.34, 5.78, 5.78, 5.79, 6.23, 6.23, 6.68, 7.07, 7.51, 7.51, 7.87, 7.87, 7.4, 6.3, 4.65, 4.07, 3.87, 3.2, 3.43, 3.88, 5.02, 5.24, 5.24, 5.24, 5.33, 5.34, 5.81, 6.26, 6.26, 6.71, 6.71, 6.71, 6.71, 6.71, 6.71, 6.71, 6.71, 7.15, 7.15, 8.05, 6.71, 5.81, 5.33, 5.24, 5.24, 4.89, 4.92, 4.92, 4.92, 4.89, 4.77, 4.6, 5.02, 4.9, 5.08, 5.21, 6.13, 5.75, 5.01, 4.46, 2.53, 1.19, 0.82, -0.0, -0.81, -0.81, 1.2, 3.52, 5.92, 10.83, 15.05, 16.73, 11.9, 4.81, 1.58, 1.74, 1.34, 0.89, 0.45, 2.0, 3.6, 4.66, 5.59, 6.07, 6.21, 5.75, 4.85, 2.98, 1.9, 1.0, 1.0, 1.0, 5.81, 5.81, 5.81, 5.36, 5.36, 5.36, 5.34, 5.78, 5.78, 6.23, 6.23, 6.68, 6.68, 7.07, 7.51, 7.97, 7.97, 7.87, 8.3, 8.3, 8.17, 7.87, 7.51, 6.67, 5.21, 4.8, 5.09, 5.24, 5.24, 5.33, 5.33, 5.78, 5.81, 6.26, 6.26, 6.71, 6.71, 6.71, 6.71, 6.71, 6.71, 6.71, 6.71, 6.71, 7.15, 7.6, 7.15, 6.71, 5.78, 5.33, 5.24, 4.89, 4.89, 4.92, 5.33, 5.33, 4.77, 4.77, 4.77, 5.02, 4.8, 4.93, 4.93, 5.75, 5.01, 3.79, 2.4, 1.05, -0.0, -0.0, -0.81, -0.0, 1.25, 3.2, 5.03, 7.27, 12.49, 17.07, 17.03, 13.74, 10.47, 10.47, 7.32, 1.34, -1.34, 1.26, 3.6, 4.57, 4.57, 4.15, 3.2, 2.21, 1.2, -0.0, -0.0, -0.0, -0.0, -0.0, 5.81, 5.81, 5.81, 5.36, 5.36, 5.33, 5.34, 5.78, 5.7, 6.14, 6.16, 6.16, 6.61, 7.07, 7.51, 7.97, 7.97, 7.97, 8.42, 8.86, 9.32, 9.83, 9.68, 8.3, 7.01, 5.81, 5.67, 5.24, 5.33, 5.33, 5.34, 5.81, 5.81, 6.26, 6.26, 6.71, 6.71, 6.26, 6.71, 6.71, 6.71, 6.71, 6.71, 6.71, 7.15, 7.15, 7.15, 7.15, 6.26, 5.78, 5.24, 4.77, 4.88, 4.89, 4.89, 5.33, 4.89, 4.88, 4.77, 4.6, 4.27, 4.55, 4.65, 6.13, 5.01, 3.49, 1.1, -0.0, -0.0, -0.77, -0.0, -0.0, 1.84, 3.47, 4.11, 5.82, 9.04, 13.51, 16.09, 14.99, 13.2, 13.63, 13.32, 6.54, 0.89, -0.0, 0.99, 0.99, -0.0, -0.0, -0.0, -0.0, -0.0, -1.26, -1.26, -2.0, -2.0, -2.0, 5.81, 5.81, 5.81, 5.36, 5.34, 5.33, 5.34, 5.78, 5.7, 6.14, 6.16, 6.16, 6.61, 7.07, 7.58, 8.03, 7.97, 8.41, 8.42, 8.47, 8.94, 8.94, 8.86, 7.74, 7.21, 6.47, 6.16, 5.78, 5.78, 5.34, 5.36, 5.81, 5.81, 6.26, 6.26, 6.71, 6.71, 6.26, 6.26, 6.26, 6.26, 6.71, 6.71, 6.71, 7.15, 7.15, 7.15, 7.13, 6.68, 5.81, 4.89, 4.34, 4.34, 4.88, 4.88, 4.89, 4.89, 4.88, 4.43, 3.87, 3.72, 4.0, 4.37, 4.41, 5.06, 2.49, 1.18, -0.0, -0.0, -0.0, -0.0, 0.88, 1.83, 3.07, 2.98, 3.11, 6.32, 10.91, 13.51, 13.46, 13.35, 14.66, 16.42, 11.37, 3.16, -1.0, -0.85, -1.98, -2.21, -1.9, -2.21, -2.0, -2.0, -2.24, -2.68, -2.68, -2.68, -2.68, 5.81, 5.81, 5.81, 5.34, 5.33, 5.34, 5.78, 5.7, 5.7, 6.14, 6.16, 6.16, 6.61, 7.06, 7.51, 8.03, 8.03, 8.03, 8.47, 8.49, 8.49, 8.49, 7.97, 7.51, 7.06, 6.61, 6.61, 6.23, 6.23, 5.78, 5.81, 5.81, 5.81, 6.26, 6.26, 6.71, 6.71, 6.26, 6.26, 6.26, 6.26, 6.26, 6.26, 6.71, 6.71, 7.15, 7.15, 7.13, 6.68, 5.81, 4.89, 4.3, 4.3, 4.43, 4.44, 4.92, 4.92, 4.47, 3.97, 3.32, 3.14, 3.43, 3.78, 4.11, 3.76, 2.49, 1.23, 0.82, 0.82, -0.0, -0.0, 0.88, 0.88, 0.81, 0.89, 2.35, 5.59, 9.04, 10.91, 11.2, 12.09, 15.13, 16.63, 12.05, 3.22, -2.12, -3.04, -3.2, -3.9, -3.6, -2.8, -2.4, -3.13, -3.13, -3.13, -3.58, -3.58, -3.58, 5.81, 5.81, 5.34, 5.33, 5.33, 5.34, 5.78, 5.7, 5.7, 5.7, 6.16, 6.16, 6.6, 7.06, 7.07, 7.58, 8.03, 8.03, 8.05, 8.49, 8.05, 8.03, 7.58, 7.07, 6.61, 6.68, 7.13, 6.68, 6.68, 6.26, 6.26, 6.26, 6.26, 6.26, 6.26, 6.71, 6.71, 6.71, 6.26, 6.26, 6.26, 6.26, 6.26, 6.71, 6.71, 7.15, 7.15, 7.15, 6.68, 6.23, 4.92, 3.98, 3.87, 3.98, 4.47, 4.92, 4.47, 4.02, 3.53, 3.07, 3.14, 3.43, 3.78, 3.49, 3.08, 2.32, 1.41, -0.0, -0.0, -0.0, -0.0, -0.0, -0.0, -0.0, 0.83, 2.35, 4.95, 7.35, 9.66, 9.56, 10.51, 14.13, 16.12, 12.42, 3.11, -3.95, -4.41, -4.47, -4.47, -3.9, -3.39, -3.39, -3.58, -3.58, -3.58, -3.58, -3.58, -3.58, 5.78, 5.78, 5.34, 5.33, 5.33, 5.34, 5.7, 5.7, 5.7, 5.7, 6.16, 6.16, 6.6, 7.06, 7.06, 7.51, 7.58, 7.58, 8.05, 8.05, 8.05, 7.58, 7.58, 7.13, 6.68, 6.68, 7.15, 7.15, 6.71, 6.71, 6.71, 6.71, 6.71, 6.26, 6.26, 6.26, 6.71, 6.71, 6.26, 6.26, 6.26, 6.26, 6.26, 6.26, 6.71, 6.71, 7.15, 7.15, 6.68, 6.68, 5.36, 4.44, 3.98, 3.98, 4.47, 4.47, 4.47, 4.02, 3.39, 3.14, 3.16, 3.43, 3.16, 2.86, 2.4, 2.32, 1.41, 1.19, -0.0, -0.0, -0.87, -1.55, -0.89, -0.0, 0.78, 2.47, 3.9, 5.89, 7.9, 8.53, 9.56, 12.22, 14.42, 13.28, 5.7, -3.74, -5.34, -4.41, -4.41, -4.15, -4.0, -3.9, -3.58, -4.02, -3.58, -3.58, -3.58, -3.58, 5.78, 5.78, 5.34, 5.34, 5.34, 5.7, 5.7, 5.7, 5.7, 5.7, 6.16, 6.16, 6.6, 6.61, 7.06, 7.06, 7.13, 7.58, 7.58, 7.6, 7.6, 7.6, 7.13, 7.13, 6.71, 6.71, 6.71, 7.15, 6.71, 6.71, 6.71, 6.71, 6.71, 6.71, 6.71, 6.26, 6.26, 6.71, 6.26, 6.26, 6.26, 6.26, 6.26, 6.26, 6.26, 6.71, 7.15, 7.15, 7.15, 6.68, 6.26, 4.92, 4.43, 3.98, 4.47, 4.47, 4.47, 3.98, 3.88, 3.43, 3.43, 3.43, 3.16, 2.86, 1.94, 1.7, 1.7, 1.66, 0.99, -0.0, -0.88, -1.83, -1.6, -0.82, -0.0, 1.72, 3.33, 4.26, 6.14, 7.82, 8.85, 9.48, 10.25, 12.96, 11.44, 2.24, -3.13, -1.6, -1.58, -2.98, -3.6, -3.6, -3.47, -3.58, -3.58, -2.68, -2.68, -2.68, 5.78, 5.78, 5.78, 5.78, 5.7, 5.7, 5.7, 5.7, 5.7, 6.14, 6.16, 6.6, 6.6, 6.61, 7.06, 7.06, 7.06, 7.13, 7.13, 7.13, 7.6, 7.15, 7.15, 7.15, 7.15, 7.15, 7.15, 7.15, 6.71, 6.71, 6.26, 6.26, 6.71, 6.71, 6.71, 6.26, 6.26, 6.26, 6.26, 6.26, 6.26, 6.26, 6.26, 6.26, 6.26, 6.71, 7.15, 7.15, 7.15, 6.68, 6.26, 5.81, 4.89, 4.88, 4.92, 4.92, 4.47, 4.77, 4.4, 4.0, 3.72, 3.35, 2.84, 2.48, 1.76, 1.55, 2.76, 1.66, -0.0, -0.0, -0.0, -0.0, -0.88, -0.96, -0.0, 1.6, 2.64, 4.03, 4.96, 6.42, 7.82, 7.82, 8.46, 11.9, 15.24, 0.89, -3.04, -0.0, 1.26, -0.0, -1.58, -2.23, -2.24, -2.68, -2.68, -2.0, -2.0, -2.0, 5.78, 5.78, 5.78, 5.78, 5.7, 5.7, 5.7, 5.7, 5.7, 6.14, 6.16, 6.47, 6.47, 6.61, 6.61, 7.06, 7.06, 7.06, 7.13, 7.13, 7.13, 7.15, 7.15, 6.71, 7.15, 7.15, 7.15, 7.15, 6.71, 6.71, 6.26, 6.26, 6.26, 6.71, 6.71, 6.71, 6.26, 6.26, 6.26, 6.26, 6.26, 6.26, 6.26, 6.26, 6.26, 6.71, 6.71, 7.15, 7.15, 6.71, 6.26, 5.81, 5.36, 5.36, 5.36, 5.36, 5.33, 5.24, 5.09, 4.27, 3.6, 2.79, 2.53, 2.23, 1.76, 1.76, 1.66, -0.0, -0.82, -0.83, -0.0, -0.0, -0.0, -0.0, -0.0, 0.82, 2.64, 3.2, 4.03, 5.49, 6.42, 7.18, 8.65, 12.7, 11.09, 0.87, -1.74, -1.34, 0.0, 0.0, 0.89, -1.79, -1.79, -1.79, -1.79, -0.0, -0.0, -0.0, 5.78, 5.78, 5.78, 5.7, 5.7, 5.7, 5.7, 5.7, 6.14, 6.16, 6.04, 6.47, 6.47, 6.51, 6.61, 6.61, 7.06, 7.06, 7.06, 7.13, 7.13, 7.13, 6.71, 6.68, 6.68, 6.71, 6.71, 6.71, 7.15, 6.71, 6.26, 6.26, 6.23, 6.68, 6.71, 6.26, 6.26, 6.26, 6.26, 6.26, 6.26, 6.26, 6.26, 6.26, 6.26, 6.26, 6.71, 7.15, 7.15, 6.71, 6.68, 6.26, 5.81, 5.81, 5.81, 5.81, 5.78, 5.7, 5.24, 4.34, 3.6, 3.07, 2.53, 2.23, 1.8, 1.76, 0.88, -0.0, -1.6, -1.84, -0.88, -0.0, -0.0, -0.0, -0.0, 0.82, 1.84, 3.2, 3.4, 4.03, 5.49, 7.27, 8.65, 17.15, 7.98, -0.76, -1.9, -1.6, -2.0, -2.21, -2.6, -1.26, 1.34, 0.89, -0.0, -0.0, -0.0, -0.0, 5.7, 5.7, 5.7, 5.7, 5.7, 5.7, 5.7, 5.7, 6.14, 6.04, 6.47, 6.47, 6.51, 6.51, 6.61, 6.61, 6.61, 7.06, 7.06, 6.61, 6.68, 6.68, 6.68, 6.68, 6.68, 6.68, 6.71, 6.71, 6.71, 6.71, 6.71, 6.71, 6.23, 6.23, 6.26, 6.26, 6.26, 6.26, 6.26, 6.26, 6.26, 6.26, 6.26, 6.26, 6.26, 6.26, 6.71, 6.71, 7.15, 6.71, 6.68, 6.26, 5.81, 5.81, 5.81, 5.81, 6.23, 5.78, 5.24, 4.3, 3.39, 3.07, 2.53, 1.84, 1.8, 1.27, 0.57, -0.55, -1.83, -2.68, -2.0, -0.98, -0.0, -0.0, -0.0, -0.0, 0.83, 1.73, 3.4, 3.4, 4.26, 6.24, 13.75, 16.55, 6.7, -3.95, -4.41, -3.95, -4.47, -5.16, -4.15, -1.58, 0.0, 0.89, -0.0, 0.98, 0.98, 0.98, 5.7, 5.7, 5.7, 5.7, 5.7, 5.7, 5.7, 6.14, 5.99, 6.04, 6.47, 6.47, 6.51, 6.51, 6.51, 6.51, 6.61, 7.06, 6.61, 6.61, 6.61, 6.68, 6.68, 6.68, 6.68, 6.68, 6.23, 6.26, 6.71, 6.71, 6.71, 6.71, 6.26, 6.26, 6.26, 6.26, 6.26, 6.26, 6.26, 5.81, 5.81, 6.26, 6.26, 6.26, 6.26, 6.26, 6.71, 6.71, 6.71, 6.68, 6.68, 6.26, 5.81, 5.81, 5.81, 5.81, 5.81, 5.78, 4.89, 3.98, 3.39, 3.07, 2.53, 1.84, 1.84, 1.33, 0.66, -0.0, -2.0, -1.8, -1.8, -0.98, -0.0, -0.0, -0.0, -0.88, -0.0, 0.78, 2.35, 2.64, 3.55, 4.83, 11.28, 15.12, 10.66, -1.26, -5.81, -5.36, -5.36, -5.77, -4.24, -1.6, 0.89, -0.0, 0.87, 2.4, 2.4, 2.4, 5.7, 5.7, 5.7, 5.7, 5.7, 5.7, 6.14, 5.99, 6.04, 6.04, 6.47, 6.47, 6.51, 6.94, 6.94, 6.51, 6.51, 6.61, 6.61, 6.61, 6.61, 6.68, 6.68, 6.68, 6.71, 6.26, 6.23, 6.23, 6.23, 6.68, 6.68, 6.71, 6.26, 6.26, 6.26, 6.26, 6.26, 6.26, 5.81, 5.81, 5.81, 6.26, 6.26, 6.26, 6.26, 6.26, 6.71, 6.71, 6.71, 6.68, 6.68, 6.23, 5.81, 5.81, 5.36, 5.36, 5.81, 5.36, 4.92, 3.98, 3.32, 2.68, 2.21, 1.88, 1.88, 1.4, 0.61, -0.0, -0.59, -0.87, -0.87, -0.79, -0.0, -0.0, -0.0, -1.83, -1.83, -0.0, 0.88, 1.84, 2.6, 6.11, 9.05, 12.79, 14.71, 6.65, -3.74, -5.36, -4.92, -4.41, -3.51, -1.6, -0.0, 2.0, 2.6, 3.4, 3.4, 3.4, 5.7, 5.7, 5.7, 5.7, 5.7, 5.7, 5.99, 5.99, 6.04, 6.47, 6.47, 6.47, 6.51, 6.94, 6.94, 6.51, 6.51, 6.61, 6.61, 6.61, 6.61, 6.6, 6.23, 6.23, 6.23, 6.23, 6.23, 6.23, 6.23, 6.23, 6.23, 6.23, 6.26, 6.26, 6.23, 6.26, 5.81, 5.81, 5.81, 5.81, 5.81, 5.81, 6.23, 6.23, 6.23, 6.23, 6.26, 6.71, 6.71, 6.68, 6.68, 5.81, 5.81, 5.81, 5.36, 5.36, 5.36, 5.36, 4.47, 3.53, 2.91, 2.68, 2.5, 1.88, 1.9, 1.24, -0.0, -0.0, -0.0, -0.0, -0.87, -0.88, -0.81, -0.88, -0.88, -1.99, -2.95, -0.96, -0.0, 0.88, 2.95, 4.84, 8.14, 11.84, 15.47, 12.94, 2.84, -3.83, -3.2, -2.0, -1.34, -0.0, 1.47, 3.33, 4.26, 4.96, 4.96, 4.96, 5.7, 5.7, 5.7, 5.7, 5.7, 5.99, 5.99, 6.04, 6.04, 6.47, 6.47, 6.47, 6.94, 6.94, 6.51, 6.51, 6.51, 6.61, 6.61, 6.61, 6.61, 6.6, 6.16, 6.16, 6.23, 6.23, 6.23, 6.23, 6.23, 6.23, 6.23, 6.23, 6.23, 6.23, 6.23, 5.78, 5.81, 5.81, 5.81, 5.81, 5.78, 5.78, 5.78, 6.23, 6.23, 6.23, 6.23, 6.26, 6.26, 6.68, 6.68, 5.78, 5.81, 5.36, 5.36, 5.36, 5.36, 4.92, 4.47, 3.53, 3.07, 2.8, 2.15, 1.9, 1.86, 0.8, -0.0, -0.0, -0.0, -0.0, -0.87, -1.8, -1.83, -1.83, -2.53, -2.68, -2.68, -2.84, -0.0, 0.99, 2.98, 4.66, 7.55, 11.59, 15.2, 16.54, 11.96, 3.84, 0.0, 1.6, 2.97, 3.07, 3.79, 4.12, 4.83, 5.64, 5.64, 5.64, 6.14, 6.14, 5.7, 5.7, 5.57, 5.99, 5.99, 6.04, 6.04, 6.47, 6.47, 6.47, 6.51, 6.51, 6.51, 6.51, 6.47, 6.6, 6.6, 6.6, 6.6, 6.6, 6.6, 6.16, 6.16, 6.23, 6.23, 5.78, 6.23, 6.23, 6.23, 6.23, 6.23, 5.78, 5.78, 5.78, 5.78, 5.78, 5.78, 5.78, 5.78, 5.78, 5.78, 6.23, 6.23, 6.23, 6.23, 6.23, 6.26, 6.23, 6.23, 5.78, 5.81, 5.36, 5.36, 5.36, 5.36, 4.92, 4.02, 3.58, 3.07, 2.4, 2.4, 1.86, 1.7, 0.95, -0.0, -0.0, -0.0, -0.0, -0.65, -1.13, -1.8, -2.68, -3.16, -3.58, -2.84, -2.53, -1.0, -0.0, 2.6, 4.82, 7.55, 11.59, 15.65, 16.99, 14.75, 10.26, 7.56, 6.71, 6.79, 6.7, 5.94, 5.64, 5.64, 6.42, 6.42, 6.42, 6.14, 6.14, 5.57, 5.57, 5.99, 5.99, 5.99, 6.04, 6.04, 6.47, 6.47, 6.47, 6.47, 6.47, 6.47, 6.47, 6.47, 6.47, 6.6, 6.6, 6.6, 6.6, 6.6, 6.16, 6.16, 5.78, 5.78, 5.78, 6.23, 6.23, 6.23, 5.79, 5.78, 5.78, 5.78, 5.78, 5.78, 5.78, 5.78, 5.78, 5.78, 5.78, 5.78, 5.78, 6.23, 6.23, 6.23, 6.23, 6.23, 6.23, 6.23, 5.78, 5.81, 5.36, 5.36, 5.36, 5.36, 4.92, 4.02, 3.58, 3.07, 2.6, 2.6, 2.17, 1.79, 0.63, -0.0, -0.95, -0.0, -0.0, -0.0, -0.0, -1.13, -2.84, -2.84, -3.6, -3.35, -2.21, -1.2, -0.0, 2.4, 4.82, 7.11, 10.7, 15.12, 17.36, 14.73, 12.04, 10.18, 9.62, 9.4, 8.24, 6.98, 6.28, 6.28, 5.94, 5.94, 5.94, 6.04, 6.04, 5.99, 5.99, 5.99, 5.99, 5.99, 6.04, 6.04, 6.47, 6.47, 6.47, 6.47, 6.47, 6.47, 6.47, 6.47, 6.6, 6.6, 6.6, 6.6, 6.6, 6.16, 6.16, 6.23, 5.78, 5.78, 5.78, 5.78, 5.78, 5.78, 5.78, 5.78, 5.78, 5.78, 5.78, 5.78, 5.78, 5.78, 5.78, 5.78, 5.78, 5.78, 5.78, 5.78, 6.23, 6.23, 6.23, 6.23, 6.23, 5.78, 5.78, 5.81, 5.36, 5.36, 5.36, 4.92, 4.47, 4.02, 3.58, 2.68, 2.68, 2.68, 2.24, 1.79, 1.34, 0.45, -0.0, -0.0, -0.0, -0.0, -0.0, -0.0, -1.8, -2.53, -3.6, -3.39, -2.21, -1.2, -0.0, 1.0, 4.38, 6.21, 9.8, 13.77, 17.13, 16.05, 13.29, 11.61, 10.43, 9.9, 8.05, 6.68, 6.68, 6.35, 6.11, 6.11, 6.11, 6.04, 6.04, 5.99, 5.99, 5.99, 5.99, 5.99, 6.04, 6.04, 6.47, 6.47, 6.47, 6.47, 6.47, 6.47, 6.47, 6.47, 6.6, 6.6, 6.6, 6.6, 6.6, 6.16, 6.16, 6.23, 5.78, 5.78, 5.78, 5.78, 5.78, 5.78, 5.78, 5.78, 5.78, 5.78, 5.78, 5.78, 5.78, 5.78, 5.78, 5.78, 5.78, 5.78, 5.78, 5.78, 6.23, 6.23, 6.23, 6.23, 6.23, 5.78, 5.78, 5.81, 5.36, 5.36, 5.36, 4.92, 4.47, 4.02, 3.58, 2.68, 2.68, 2.68, 2.24, 1.79, 1.34, 0.45, -0.0, -0.0, -0.0, -0.0, -0.0, -0.0, -1.8, -2.53, -3.6, -2.97, -2.21, -1.2, -0.0, 1.0, 3.6, 6.02, 8.36, 11.84, 15.13, 16.03, 14.3, 12.7, 11.6, 10.23, 8.42, 7.41, 6.73, 6.11, 5.82, 5.82, 5.82]}, {"header": {"dx": 0.06612293990616946, "dy": 0.0552356325346848, "nx": 98, "ny": 59, "la1": 35.046912555036876, "la2": 31.78801023549047, "lo1": -121.43107172385933, "lo2": -114.95102361305473, "refTime": "2026041215", "parameterCategory": 1, "parameterNumber": 3}, "data": [0.0, 0.53, 1.14, 1.23, 1.65, 1.76, 1.76, 1.76, 1.73, 1.63, 1.65, 1.84, 1.7, 1.83, 1.83, 1.83, 2.53, 2.95, 2.98, 2.6, 2.8, 2.49, 1.72, 1.72, 1.52, 1.63, 1.73, 1.73, 2.35, 2.51, 3.2, 2.98, -1.26, -3.47, -3.13, -3.13, -3.39, -2.0, 1.34, 3.58, 4.92, 4.82, 5.2, 5.36, 5.03, 4.83, 5.49, 5.76, 6.53, 6.42, 6.83, 7.27, 7.18, 7.18, 7.18, 6.7, 6.31, 5.76, 5.41, 4.8, 4.92, 4.83, 4.83, 5.15, 5.15, 4.95, 4.96, 5.52, 5.63, 5.51, 5.51, 4.68, 3.88, 2.4, 1.26, 0.0, -0.0, -0.0, -0.0, -1.2, -1.2, -2.21, -2.21, -2.8, -2.4, -1.6, -1.34, 0.0, 0.0, 0.99, 2.0, 2.95, 2.95, 3.58, 3.47, 3.58, 3.58, 4.47, 0.0, 0.58, 1.14, 1.65, 1.76, 1.76, 1.76, 1.76, 1.73, 1.63, 1.65, 1.72, 0.81, 0.88, 1.19, 1.55, 2.0, 2.73, 2.73, 1.83, 2.6, 2.32, 2.49, 2.49, 0.88, 0.82, 0.89, 1.63, 2.35, 3.33, 5.06, 6.08, 4.19, -1.79, -4.38, -4.02, -4.02, -2.24, 2.0, 5.29, 6.71, 7.06, 6.64, 5.15, 4.95, 5.1, 4.96, 5.49, 5.49, 6.24, 6.24, 6.95, 7.27, 6.51, 6.51, 6.31, 6.31, 5.63, 5.41, 4.8, 4.71, 4.83, 4.74, 4.81, 4.74, 4.83, 4.83, 5.52, 5.41, 5.63, 5.51, 4.68, 3.27, 1.0, -0.0, -0.0, -0.0, -0.0, -0.0, -1.2, -1.2, -2.21, -2.21, -2.8, -2.4, -1.6, -1.34, 0.0, 0.0, 0.99, 2.0, 2.95, 2.95, 3.58, 3.47, 3.58, 3.58, 4.47, 0.58, 1.14, 1.23, 1.65, 1.76, 1.76, 1.76, 1.76, 1.63, 1.63, 1.76, 1.23, 0.76, 0.88, 1.8, 1.8, 2.0, 2.0, 2.0, 1.3, 1.83, 2.6, 2.49, 3.68, 2.66, 1.7, 0.88, 0.82, 1.6, 3.35, 5.82, 8.14, 8.4, 5.01, 0.0, -2.21, -2.4, -1.79, 2.68, 6.21, 7.15, 6.21, 5.21, 5.15, 5.06, 4.95, 4.83, 4.83, 5.59, 5.59, 6.64, 6.53, 6.53, 6.42, 5.78, 5.76, 5.76, 5.63, 5.0, 4.6, 4.96, 5.06, 4.81, 4.81, 4.95, 5.76, 6.42, 7.08, 6.97, 6.45, 6.45, 6.2, 3.33, 0.0, -0.99, -0.0, -0.0, -0.0, -0.76, -0.98, -0.98, -0.87, -1.74, -2.21, -2.23, -1.58, -0.95, 0.0, 2.24, 2.98, 3.6, 3.6, 3.47, 3.13, 2.68, 2.68, 3.13, 4.34, 0.58, 1.14, 1.12, 1.65, 1.76, 1.76, 1.63, 1.76, 1.76, 1.63, 1.2, 1.12, 1.6, 1.66, 1.8, 1.66, 0.88, 1.08, 0.79, 0.88, 0.96, 1.3, 1.41, 1.72, 2.51, 2.66, 1.84, 0.88, 0.98, 3.22, 6.02, 7.89, 8.8, 9.21, 6.28, 4.74, 4.02, 2.8, 4.22, 6.71, 6.65, 5.59, 4.6, 4.11, 4.01, 4.29, 4.95, 5.69, 5.69, 6.01, 5.64, 6.24, 5.76, 5.64, 5.9, 5.52, 4.8, 5.0, 4.8, 4.2, 4.95, 4.81, 4.81, 5.77, 7.02, 8.31, 8.93, 9.2, 9.53, 8.49, 8.01, 8.01, 4.16, -1.26, -0.87, -0.0, -0.0, -0.99, -1.13, -1.8, -1.66, -2.0, -1.98, -2.98, -2.4, -0.0, 1.58, 2.97, 4.02, 4.47, 4.02, 3.13, 2.4, 2.24, 2.24, 2.24, 3.13, 3.9, 0.57, 1.12, 1.12, 1.76, 1.76, 1.63, 1.1, 1.1, 1.2, 1.2, 1.2, 1.12, 1.6, 1.83, 1.66, 1.66, 0.73, 0.88, 0.0, 0.0, 0.0, 0.0, 0.0, 1.41, 1.7, 2.49, 3.45, 2.6, 1.8, 3.9, 6.21, 7.55, 7.42, 7.21, 7.07, 6.28, 6.32, 6.3, 5.69, 7.21, 7.42, 6.16, 4.84, 4.19, 4.11, 4.81, 5.77, 5.69, 5.69, 6.01, 5.89, 5.49, 5.76, 5.38, 5.64, 4.92, 4.8, 3.95, 4.07, 4.26, 4.43, 4.84, 6.18, 8.06, 10.23, 11.26, 11.28, 10.91, 10.9, 10.58, 9.48, 8.66, 6.51, 1.26, -0.0, -0.0, -0.0, -1.98, -1.9, -1.74, -1.49, -2.0, -1.98, -2.8, -1.26, 2.21, 4.22, 4.8, 4.57, 3.9, 3.9, 2.6, 1.58, 1.79, 2.24, 2.68, 2.97, 3.9, 0.57, 1.12, 1.2, 1.2, 1.1, 1.18, 1.18, 1.1, 0.57, 0.57, 0.57, 1.14, 1.6, 1.83, 0.96, 0.96, 0.96, 0.0, 0.0, 0.0, 0.0, 0.0, 1.14, 2.32, 2.6, 3.49, 4.74, 3.76, 4.11, 6.23, 6.28, 6.45, 6.02, 5.21, 4.74, 4.74, 4.65, 4.71, 4.95, 6.51, 6.98, 7.6, 6.44, 5.15, 5.21, 5.82, 6.11, 4.95, 4.65, 4.95, 5.3, 5.89, 5.49, 4.96, 4.2, 4.07, 3.11, 3.21, 3.15, 3.47, 3.93, 5.21, 8.55, 10.95, 12.04, 12.39, 11.88, 10.91, 10.24, 9.48, 8.01, 7.24, 7.24, 4.03, 0.0, -0.0, -0.0, -0.99, -1.9, -2.4, -0.99, -1.13, -1.74, -1.2, 0.99, 2.76, 3.63, 3.48, 2.84, 2.84, 2.84, 2.21, 1.58, 1.79, 2.68, 2.97, 2.97, 3.9, 0.57, 1.2, 1.1, 1.18, 1.18, 1.18, 0.59, 0.56, 0.57, 0.57, 0.58, 1.14, 0.89, 0.88, 0.0, 0.0, 0.0, 0.0, 0.0, -0.79, -0.79, -0.79, 0.0, 1.7, 3.76, 3.76, 4.02, 4.74, 5.59, 5.82, 6.13, 5.2, 5.2, 5.21, 4.43, 4.74, 5.06, 4.96, 5.37, 5.29, 6.26, 6.23, 7.2, 7.2, 7.2, 6.79, 6.01, 3.9, 4.43, 5.37, 6.32, 5.89, 5.76, 4.0, 2.44, 1.6, 1.67, 1.65, 1.6, 1.8, 4.0, 7.21, 10.75, 12.09, 11.62, 11.26, 10.91, 9.62, 8.12, 6.45, 4.8, 3.21, 3.21, 3.32, 0.88, 0.0, -1.0, -1.0, -1.0, -1.0, -1.0, -0.0, -0.0, -0.0, 0.81, 1.47, 0.82, 0.88, 0.88, 0.88, 1.6, 1.9, 2.24, 2.68, 3.39, 3.39, 2.97, 3.39, 0.61, 1.1, 1.18, 1.18, 1.09, 1.09, 1.18, 0.56, 0.61, 0.58, 1.14, 1.16, 0.82, 0.88, 0.0, 0.0, 0.0, 0.0, 0.0, -0.98, -1.13, -1.6, -1.98, -0.87, 0.0, 0.0, 1.3, 2.6, 4.74, 5.06, 4.65, 5.36, 5.64, 5.01, 4.43, 4.11, 3.72, 3.9, 5.37, 5.2, 5.36, 5.36, 6.14, 7.21, 7.2, 6.87, 6.39, 5.06, 5.82, 7.07, 6.01, 5.89, 5.76, 4.0, 2.31, 0.84, 0.0, 0.0, 0.0, 1.2, 5.51, 9.7, 10.93, 11.18, 10.55, 9.67, 8.93, 6.57, 3.95, 2.31, 0.82, 0.0, 0.0, 0.0, 0.0, -0.95, -2.0, -1.26, -1.58, -2.0, -1.6, -0.0, -0.0, -0.0, 0.72, -0.0, -0.0, -0.0, -0.0, 0.96, 1.4, 2.54, 4.02, 4.92, 4.92, 3.9, 2.97, 2.97, 0.61, 1.1, 1.18, 1.09, 1.16, 1.16, 1.09, 1.18, 1.2, 1.14, 1.14, 0.59, 0.0, 0.96, 0.88, 0.0, 0.0, 0.0, 0.0, 0.0, 0.0, -1.8, -1.98, -2.84, -2.68, -1.41, 0.0, 0.0, 2.6, 3.76, 4.4, 4.47, 4.24, 4.09, 3.35, 2.76, 1.55, 2.73, 3.79, 4.92, 5.36, 5.36, 5.2, 5.2, 6.13, 6.08, 8.15, 8.54, 9.03, 8.06, 6.64, 5.59, 5.49, 4.96, 4.03, 0.82, 0.0, -0.99, -1.0, 2.6, 8.8, 11.51, 10.45, 10.68, 10.0, 8.65, 7.36, 4.13, 0.0, -0.78, -1.67, -2.26, -2.51, -2.11, -0.7, -1.58, -2.24, -2.68, -2.54, -2.54, -2.68, -1.0, -0.0, -0.0, -0.0, -0.0, -0.0, -0.0, 0.76, 1.49, 3.2, 3.95, 4.92, 5.81, 5.29, 4.02, 3.13, 2.4, 1.1, 1.18, 1.09, 1.16, 1.16, 1.16, 1.09, 1.18, 1.2, 1.23, 0.58, 0.58, 0.0, 0.53, 0.89, 0.0, 0.0, 0.0, -1.3, -1.41, -1.41, -2.48, -3.16, -3.72, -4.46, -2.98, 0.0, 0.0, 2.73, 3.49, 4.66, 3.13, 2.8, 1.6, 2.73, 2.6, 1.41, 2.21, 4.66, 4.77, 4.47, 4.38, 4.15, 4.0, 4.84, 6.4, 7.42, 8.05, 8.68, 7.35, 6.64, 7.02, 7.02, 7.06, 6.44, 4.54, 0.0, -3.13, -1.79, 6.21, 11.52, 12.42, 12.35, 11.37, 10.63, 9.0, 7.36, 4.12, -0.73, -4.03, -4.58, -4.74, -4.43, -3.07, -2.21, -1.6, -2.24, -2.68, -2.68, -3.04, -2.68, -2.54, -1.26, -0.87, -0.0, -0.0, 0.74, 0.72, 2.2, 3.22, 4.38, 4.47, 4.47, 4.47, 4.15, 3.9, 2.68, 1.58, 1.1, 1.18, 1.09, 1.16, 1.16, 1.16, 1.09, 1.18, 0.56, 0.57, 0.58, 0.58, 0.53, 0.0, 0.0, 0.0, 0.0, -0.58, -1.14, -1.7, -2.6, -2.76, -2.95, -3.16, -4.09, -2.48, 0.0, 1.6, 1.8, 2.73, 3.16, 1.58, 0.0, 0.0, 0.0, 1.19, 4.09, 4.47, 3.9, 4.15, 4.15, 3.9, 3.9, 4.66, 5.64, 6.28, 6.44, 6.79, 6.01, 5.69, 7.69, 10.55, 11.09, 10.95, 10.75, 10.68, 6.65, -1.79, 0.0, 9.83, 12.94, 12.86, 12.74, 12.8, 12.7, 11.88, 11.28, 9.3, 4.54, -2.54, -5.31, -6.55, -4.93, -3.2, -2.24, -1.79, -1.34, -1.79, -1.79, -2.24, -2.24, -1.9, -0.87, -1.9, 0.0, 1.26, 1.74, 1.8, 2.84, 3.83, 3.74, 3.58, 3.13, 2.68, 1.9, 2.4, 1.79, -0.0, 0.56, 1.18, 1.09, 1.16, 1.16, 1.16, 1.09, 0.55, 0.56, 0.57, 0.58, 0.58, 0.53, 0.0, 0.0, 0.0, 0.0, 0.0, -0.56, -1.2, -1.65, -2.16, -2.2, -2.6, -2.73, -1.41, 0.0, 0.65, 0.0, 0.0, 0.0, 0.0, 0.0, 0.0, 0.0, 1.2, 3.2, 3.47, 3.47, 4.0, 4.57, 4.15, 4.38, 5.36, 5.81, 6.51, 8.06, 7.44, 6.28, 6.8, 10.02, 12.58, 13.49, 14.67, 14.22, 14.55, 13.91, 7.42, 6.2, 11.62, 13.39, 12.86, 12.42, 13.21, 15.13, 17.25, 18.17, 17.44, 15.13, 9.75, 3.83, -1.34, -3.97, -3.2, -1.2, -1.26, 0.0, 0.0, 0.0, 0.0, 0.0, 0.0, 0.88, 0.0, 1.41, 2.9, 2.88, 2.54, 2.98, 3.16, 3.22, 1.9, 1.26, 0.0, 0.0, 0.0, -0.0, -0.99, 0.56, 1.18, 1.09, 1.16, 1.16, 1.16, 0.58, 0.55, 0.56, 0.57, 0.57, 0.58, 0.58, 0.53, 0.0, 0.0, 0.0, 0.0, -0.58, -0.55, -1.18, -1.76, -2.32, -1.67, -1.7, -1.19, 0.0, 0.0, 0.0, -0.65, -0.87, -0.85, 0.0, 0.0, 0.0, 1.34, 2.24, 3.13, 2.97, 3.6, 4.82, 4.85, 5.36, 5.36, 6.26, 7.15, 7.97, 7.81, 7.81, 8.17, 9.72, 10.18, 11.62, 12.52, 13.41, 13.81, 14.53, 13.51, 9.75, 12.04, 12.96, 11.96, 12.04, 13.39, 16.52, 18.31, 19.17, 19.52, 18.78, 17.5, 14.49, 9.66, 2.68, -2.4, -1.98, -1.2, -0.0, 0.0, 0.0, 0.0, 0.0, 0.96, 2.35, 4.26, 5.76, 7.36, 6.79, 4.43, 3.04, 2.79, 2.79, 2.15, 0.85, -0.0, -0.0, -1.2, -1.98, -0.87, 0.56, 1.18, 1.09, 1.16, 0.58, 0.58, 0.58, 0.55, 0.56, 0.57, 0.57, 0.57, 0.58, 0.53, 0.58, 0.0, 0.0, 0.0, 0.0, -0.58, -1.16, -1.09, -1.73, -2.29, -2.29, -1.76, -1.14, -0.61, -1.27, -1.8, -1.11, 0.0, 0.0, 0.0, 0.89, 1.79, 2.24, 3.13, 2.98, 3.6, 4.38, 4.47, 5.36, 5.36, 5.2, 5.81, 5.81, 6.23, 7.74, 8.41, 8.41, 8.05, 8.41, 8.43, 8.94, 8.46, 9.63, 12.07, 12.6, 10.25, 11.15, 12.07, 12.52, 13.86, 14.3, 14.3, 13.86, 12.96, 13.01, 12.23, 12.52, 11.82, 7.01, 0.0, -2.68, -0.0, 2.4, 3.48, 3.33, 2.35, 0.83, 1.55, 2.2, 2.3, 6.01, 7.18, 7.9, 7.42, 4.02, 2.3, 2.98, 2.98, 1.55, 0.88, -0.0, -0.98, -0.98, -0.88, 0.56, 0.59, 0.55, 0.58, 0.58, 0.58, 0.58, 0.55, 0.56, 0.57, 0.57, 1.14, 1.14, 0.58, 0.58, 0.56, 0.0, 0.0, 0.0, 0.0, -0.58, -0.58, -1.16, -1.71, -2.26, -2.26, -1.73, -1.76, -1.8, -1.84, -0.61, 0.0, 0.0, 0.0, 1.9, 2.68, 3.58, 3.39, 3.16, 3.6, 3.9, 4.92, 4.47, 4.47, 4.47, 4.47, 4.92, 5.7, 7.06, 7.06, 7.06, 6.71, 6.14, 5.7, 5.81, 5.81, 6.79, 8.88, 10.53, 9.39, 8.82, 9.54, 10.22, 10.22, 10.73, 10.73, 10.28, 9.32, 7.2, 7.21, 7.18, 6.21, 3.87, 0.82, 0.0, 4.98, 8.05, 8.22, 8.01, 6.21, 4.75, 3.95, 1.6, 0.0, -0.0, 3.63, 5.06, 5.82, 4.47, 2.68, 3.22, 3.22, 2.29, 1.47, 0.88, -0.0, -0.0, -0.0, 0.56, 0.59, 0.55, 0.58, 0.58, 0.58, 0.58, 0.55, 0.61, 0.53, 0.58, 1.14, 1.14, 0.58, 0.57, 0.56, 0.0, 0.0, 0.0, 0.0, 0.0, -0.54, -0.58, -1.16, -1.71, -1.71, -1.71, -2.37, -2.37, -2.37, -0.56, 0.59, 1.19, 1.19, 2.53, 2.68, 3.13, 3.39, 2.84, 3.72, 3.9, 3.9, 4.47, 4.02, 4.02, 4.02, 4.47, 4.92, 5.36, 5.81, 6.26, 5.81, 5.81, 5.2, 4.47, 4.47, 5.36, 6.79, 8.22, 7.6, 6.7, 5.93, 6.13, 6.13, 5.81, 6.26, 6.71, 7.21, 7.44, 5.72, 3.32, 1.48, 0.75, 2.39, 6.32, 10.28, 11.25, 11.14, 9.49, 8.61, 7.82, 7.25, 3.0, -1.26, -0.99, -1.2, 1.26, 3.58, 4.02, 3.58, 2.95, 1.55, 1.47, 1.49, 0.99, 0.87, -0.0, -0.0, 0.56, 0.59, 0.55, 0.58, 0.58, 0.0, 0.0, 0.0, 0.57, 0.58, 0.58, 0.58, 0.58, 0.58, 0.57, 0.61, 0.0, 0.0, 0.0, 0.0, 0.0, 0.0, -0.57, -0.57, -1.14, -1.14, -1.69, -2.33, -2.3, -2.42, -1.12, 0.59, 1.84, 2.16, 2.3, 3.22, 3.6, 3.6, 3.6, 3.82, 4.24, 3.9, 4.24, 3.47, 4.02, 4.02, 4.02, 4.02, 4.02, 4.02, 3.58, 4.02, 4.47, 4.92, 4.92, 4.92, 4.47, 3.58, 3.82, 5.36, 5.7, 4.11, 4.11, 2.98, 2.73, 3.22, 5.2, 6.26, 7.44, 5.92, 1.23, 0.0, 0.8, 4.68, 8.85, 10.9, 11.14, 10.98, 9.66, 9.39, 8.61, 8.61, 5.76, 0.0, -1.8, -0.85, -0.0, 3.6, 4.57, 3.6, 1.9, 0.87, 0.88, 0.87, -0.0, 0.71, 0.76, 0.76, 0.56, 0.59, 0.0, 0.0, 0.0, 0.0, 0.0, 0.0, 0.57, 0.58, 0.58, 0.58, 0.58, 0.58, 0.57, 0.0, 0.0, 0.0, 0.0, 0.0, 0.0, 0.0, -0.57, -0.57, -0.57, -1.14, -1.14, -1.69, -1.78, -2.28, -1.73, 0.0, 1.2, 2.16, 2.84, 3.35, 3.93, 4.09, 3.82, 3.6, 4.24, 4.24, 3.6, 3.6, 3.58, 3.58, 3.58, 3.58, 3.58, 3.2, 3.2, 3.13, 3.58, 4.47, 4.47, 4.02, 3.58, 2.68, 3.13, 4.02, 4.34, 4.09, 4.09, 2.48, 2.48, 2.41, 3.58, 4.47, 3.76, 3.53, 2.32, 1.58, 4.06, 6.31, 7.79, 7.9, 8.05, 8.06, 8.74, 8.06, 7.58, 7.13, 5.48, -2.0, -1.0, 2.0, 4.02, 4.15, 4.15, 4.02, 3.58, 2.24, -0.0, -0.0, -0.0, -0.0, -0.0, -0.0, 0.56, 0.0, 0.0, 0.0, 0.0, 0.0, 0.0, 0.0, 0.0, 0.58, 0.58, 0.58, 0.58, 0.58, 0.58, 0.0, 0.0, 0.0, 0.0, 0.0, 0.0, 0.0, -0.58, 0.0, 0.0, 0.0, -1.2, -0.84, -1.58, -1.69, -1.67, -0.56, 0.0, 1.76, 3.04, 3.12, 3.15, 3.16, 2.84, 2.84, 2.98, 2.98, 3.6, 3.2, 2.8, 2.21, 2.68, 3.13, 3.58, 3.82, 4.24, 4.24, 4.66, 4.92, 4.47, 4.02, 3.58, 3.58, 4.02, 4.02, 4.02, 4.24, 4.24, 3.22, 3.16, 3.16, 3.22, 1.79, 0.0, 0.0, 1.16, 3.23, 3.95, 3.87, 3.17, 1.64, 1.58, 1.6, 3.07, 3.91, 3.14, 2.31, 1.58, 0.0, 0.0, 2.4, 3.9, 3.95, 3.47, 3.13, 4.0, 2.68, 0.0, -0.0, -0.0, 0.0, 0.0, 0.0, 0.0, 0.0, 0.0, 0.0, 0.0, 0.0, 0.0, 0.0, 0.0, 0.58, 0.53, 0.53, 0.58, 0.58, 0.57, 0.0, 0.0, 0.0, 0.0, 0.0, 0.0, 0.0, -0.59, -0.84, -0.84, -0.84, -0.84, -0.56, -0.55, -1.16, -1.2, -1.18, 0.0, 0.57, 1.76, 2.18, 2.22, 2.23, 1.84, 1.61, 1.88, 1.61, 1.9, 1.9, 1.24, 2.21, 2.21, 2.21, 3.2, 3.6, 4.24, 4.09, 4.66, 5.2, 4.15, 4.15, 4.24, 2.97, 2.54, 3.13, 3.13, 3.2, 3.82, 3.72, 3.22, 2.84, 2.97, 1.58, 0.0, -0.76, 0.0, 0.77, 0.0, -0.8, -2.3, -3.96, -4.87, -4.87, -0.8, 0.0, 0.81, 0.81, 0.8, 0.82, 0.79, 2.53, 3.16, 3.79, 2.97, 1.79, 1.2, 0.88, 0.0, 0.0, 0.0, 0.0, 0.0, 0.0, 0.0, 0.0, 0.0, 0.0, 0.0, 0.0, 0.0, 0.0, 0.0, 0.53, 0.53, 0.53, 0.58, 0.58, 0.0, 0.0, 0.0, 0.0, 0.0, 0.0, 0.0, 0.0, 0.0, -0.55, -0.58, -0.58, -0.58, -0.58, -0.57, -0.57, -0.56, -0.56, -0.59, 0.0, 0.57, 0.61, 1.19, 1.8, 1.8, 1.27, 1.33, 1.4, 1.61, 1.2, 1.2, 1.6, 2.21, 2.21, 2.53, 3.2, 2.84, 3.72, 4.66, 4.66, 4.8, 4.22, 3.48, 2.84, 2.53, 2.68, 2.68, 3.58, 4.24, 3.72, 2.98, 2.98, 2.4, 1.9, 0.88, 0.79, 0.77, 2.34, 1.62, -2.35, -6.31, -7.9, -8.53, -8.12, -5.63, -2.34, 0.0, 1.61, 2.31, 2.1, 1.6, 1.73, 2.47, 3.2, 2.9, 0.79, -0.87, 0.0, 0.0, 0.0, 0.0, 0.0, 0.71, 0.71, 0.0, 0.0, 0.0, 0.0, 0.0, 0.0, 0.0, 0.0, 0.0, 0.53, 0.59, 0.53, 0.58, 0.53, 0.0, 0.0, 0.0, 0.0, 0.0, 0.0, 0.0, 0.0, 0.0, 0.0, 0.0, -0.57, -0.57, 0.0, 0.0, 0.0, 0.0, 0.0, 0.0, 0.0, 0.0, 0.0, 0.57, 1.19, 1.11, 1.11, 1.27, 1.84, 1.84, 1.88, 1.4, 1.2, 1.6, 1.6, 1.4, 1.6, 2.84, 3.16, 3.72, 4.09, 4.09, 4.46, 4.54, 4.11, 1.8, 0.0, 1.79, 3.13, 3.9, 3.6, 3.47, 2.97, 2.24, 2.0, 3.58, 5.75, 8.15, 10.94, 9.49, 3.36, -7.11, -8.49, -9.78, -9.21, -7.94, -5.78, -1.69, 0.74, 3.23, 3.96, 3.29, 3.32, 3.4, 3.27, 3.7, 1.4, 0.0, -0.87, 0.0, 0.0, 0.0, 0.85, 0.0, 0.0, 0.0, 0.0, 0.0, 0.0, 0.0, 0.0, 0.0, 0.0, 0.0, 0.59, 0.59, 0.53, 0.0, 0.0, 0.0, 0.0, 0.0, 0.0, 0.0, 0.0, 0.0, 0.0, 0.0, 0.0, 0.0, 0.0, 0.0, 0.0, 0.0, 0.0, 0.0, 0.0, 0.0, 0.0, 0.0, 0.0, 0.59, 1.18, 1.16, 1.19, 1.23, 1.8, 2.23, 1.8, 1.84, 1.84, 1.27, 1.6, 1.4, 1.6, 1.8, 2.84, 3.16, 4.09, 4.09, 4.46, 4.84, 5.49, 3.22, 0.0, 1.79, 3.95, 4.47, 4.02, 4.02, 3.13, 1.79, 2.24, 4.02, 6.71, 9.32, 10.62, 8.86, 3.6, -4.43, -6.71, -7.98, -8.8, -8.49, -7.33, -4.71, -1.68, 0.82, 2.37, 4.06, 4.13, 4.2, 4.34, 4.0, 4.83, 3.07, 0.0, 0.0, 0.0, 0.0, 0.0, 0.0, 0.0, 0.0, 0.0, 0.0, 0.0, 0.0, 0.0, 0.0, 0.0, 0.0, 0.59, 0.59, 0.0, 0.0, 0.0, 0.0, 0.0, 0.0, 0.0, 0.0, 0.0, 0.0, 0.0, 0.0, 0.0, 0.0, 0.0, 0.0, 0.0, 0.0, 0.0, 0.0, 0.0, 0.0, 0.59, 0.59, 0.58, 0.58, 1.16, 1.14, 1.2, 1.16, 1.76, 2.86, 2.86, 2.22, 2.23, 2.73, 1.41, 1.27, 1.41, 1.41, 2.48, 2.48, 3.16, 4.09, 4.09, 4.22, 5.15, 4.02, 1.6, 2.68, 4.38, 4.57, 4.38, 3.58, 3.04, 3.58, 4.47, 4.92, 5.31, 4.92, 3.39, 7.34, 8.62, 3.91, -4.02, -7.5, -8.6, -8.79, -7.73, -6.7, -4.71, -2.17, -0.7, 0.82, 2.49, 3.21, 3.15, 4.12, 4.83, 4.95, 1.74, 0.0, 0.0, 0.0, 0.0, 0.0, 0.0, 0.0, 0.0, 0.0, 0.0, 0.0, 0.0, 0.0, 0.0, 0.0, 0.59, 0.53, 0.53, 0.0, 0.0, 0.0, 0.0, 0.0, 0.0, 0.0, 0.0, 0.0, 0.0, 0.0, 0.0, 0.0, 0.0, 0.0, 0.0, 0.0, 0.0, 0.0, 0.0, 0.0, 0.56, 0.56, 0.59, 0.55, 0.58, 1.15, 1.11, 1.71, 2.36, 3.12, 3.78, 2.84, 2.2, 1.94, 1.76, 1.76, 1.76, 1.76, 2.4, 2.73, 2.48, 3.48, 4.09, 4.09, 3.35, 5.06, 4.65, 5.2, 4.66, 4.57, 4.15, 3.9, 4.41, 5.75, 6.21, 6.65, 2.54, 1.66, 1.55, 6.9, 11.73, 11.28, 5.72, -2.3, -6.94, -7.74, -7.63, -7.6, -6.7, -5.21, -2.9, -0.85, 0.85, 1.75, 2.51, 4.16, 4.56, 6.53, 3.79, 0.0, 0.0, 0.0, 0.0, 0.0, 0.0, 0.0, 0.0, 0.0, 0.0, -0.55, 0.0, 0.0, 0.0, 0.0, 0.0, 0.0, 0.53, 0.58, 0.0, 0.0, 0.0, 0.0, 0.0, 0.0, 0.0, 0.0, 0.0, 0.0, 0.0, 0.0, 0.0, 0.0, 0.0, 0.0, 0.0, 0.0, 0.0, 0.0, 0.0, 0.56, 0.59, 0.56, 0.59, 1.15, 1.15, 1.16, 2.21, 3.45, 4.12, 3.47, 2.82, 2.4, 1.73, 1.73, 1.73, 1.73, 1.73, 2.4, 2.73, 2.98, 3.79, 3.48, 3.79, 5.01, 6.13, 6.13, 6.13, 4.6, 4.22, 5.09, 6.51, 7.42, 7.42, 6.02, 4.0, 3.16, 5.06, 6.64, 9.7, 12.87, 13.61, 4.96, -5.36, -6.26, -6.94, -7.63, -7.03, -6.08, -3.9, -1.52, 0.0, 1.72, 2.8, 4.11, 4.46, 6.39, 6.44, 3.0, 0.0, -0.0, 0.0, 1.34, 1.34, -0.59, -0.59, -0.59, -0.59, -0.59, 0.0, 0.0, 0.0, 0.0, 0.0, 0.0, 0.0, 0.0, 0.0, 0.0, 0.0, 0.0, 0.0, 0.0, 0.0, 0.0, 0.0, 0.0, 0.0, 0.0, 0.0, 0.0, 0.0, 0.0, 0.0, 0.0, 0.0, 0.0, 0.0, 0.0, 0.0, 0.0, 0.56, 0.59, 1.11, 0.59, 1.11, 2.33, 4.1, 3.85, 3.0, 2.16, 1.7, 1.88, 1.73, 1.73, 1.73, 1.76, 1.76, 3.35, 3.35, 3.79, 3.79, 3.48, 4.84, 6.13, 5.06, 5.06, 5.2, 7.21, 6.98, 7.42, 5.29, 4.85, 5.09, 4.84, 5.15, 5.69, 7.18, 9.7, 10.35, 8.86, -1.6, -5.43, -5.81, -6.02, -5.75, -4.84, -3.07, -2.53, 0.0, 1.83, 3.79, 4.84, 5.21, 5.72, 7.22, 6.7, 3.2, 0.85, 1.26, 1.0, 1.0, -0.56, -0.56, -0.56, -0.56, -0.56, 0.0, 0.0, 0.0, 0.0, 0.0, 0.0, 0.0, 0.0, 0.0, 0.0, 0.0, 0.0, 0.0, 0.0, 0.0, 0.0, 0.0, 0.0, 0.0, 0.0, 0.0, 0.0, 0.0, 0.0, 0.0, 0.0, 0.0, 0.0, 0.0, 0.0, 0.0, 0.0, 0.0, 0.56, 0.59, 1.18, 1.12, 1.69, 2.26, 2.77, 3.0, 2.49, 1.8, 1.14, 1.16, 1.16, 1.19, 1.73, 1.94, 2.86, 3.63, 4.11, 3.79, 3.48, 4.84, 4.74, 4.16, 4.43, 6.28, 7.21, 7.21, 5.09, 2.97, 3.47, 4.8, 5.82, 4.65, 3.33, 2.51, 3.36, 2.41, 3.12, 2.34, -3.13, -4.57, -4.47, -4.24, -3.45, -3.2, -2.6, -1.9, 1.0, 4.22, 5.46, 6.11, 6.32, 6.57, 8.05, 6.44, 4.2, 2.26, 2.2, 2.2, -0.56, -0.56, -0.56, -0.56, -0.56, 0.0, 0.0, 0.0, 0.0, 0.0, 0.0, 0.0, 0.0, 0.0, 0.0, 0.0, 0.0, 0.0, -0.56, -0.56, -0.59, -0.55, -0.58, -0.58, -0.58, -1.09, -0.55, -0.58, 0.0, 0.0, 0.0, 0.0, 0.0, 0.0, 0.0, 0.0, 0.0, 0.0, 0.56, 0.56, 1.12, 1.14, 1.16, 1.65, 2.51, 2.8, 2.32, 1.8, 1.14, 1.14, 1.16, 1.16, 1.73, 1.73, 2.4, 3.12, 3.76, 3.49, 4.19, 4.11, 3.33, 3.33, 5.43, 6.94, 6.7, 5.75, 5.59, 3.6, 2.6, 3.93, 5.06, 5.1, 3.27, 0.0, -2.49, -3.91, -1.64, 1.6, 1.6, -1.83, -4.47, -3.97, -2.5, -1.49, -1.9, -1.6, 0.0, 3.58, 5.06, 5.89, 6.42, 6.45, 6.87, 7.25, 6.36, 5.0, 4.4, 4.4, -0.56, -0.56, -0.56, -0.56, -0.57, 0.0, 0.0, 0.0, 0.0, 0.0, 0.0, 0.0, 0.0, 0.0, 0.0, 0.0, -0.61, -0.56, -1.1, -1.18, -1.18, -1.18, -1.73, -1.73, -1.73, -1.18, -1.18, -1.18, -0.59, -0.55, 0.0, 0.0, 0.0, 0.0, 0.0, 0.0, 0.0, 0.0, 0.57, 0.61, 1.2, 1.14, 1.16, 1.18, 1.76, 2.51, 2.35, 1.84, 1.67, 1.14, 1.14, 1.14, 1.16, 1.7, 2.18, 2.84, 3.12, 3.49, 4.11, 3.22, 3.33, 4.01, 5.43, 5.2, 5.09, 5.81, 7.15, 7.63, 4.54, 3.93, 4.43, 5.89, 4.8, 1.58, -3.11, -5.55, -4.0, -1.57, 1.6, 0.78, -2.47, -3.78, -2.44, -0.61, 0.0, 0.0, 1.47, 3.0, 4.46, 5.04, 5.95, 6.33, 6.36, 7.23, 7.25, 6.36, 5.2, 5.2, -0.56, -0.56, -0.56, -0.57, 0.0, 0.0, 0.0, 0.0, 0.0, 0.0, 0.0, 0.0, 0.0, 0.0, 0.0, -0.61, -0.56, -1.18, -1.18, -1.73, -1.73, -1.63, -1.63, -1.63, -1.63, -1.63, -1.2, -1.2, -1.2, -0.56, -0.59, 0.0, 0.0, 0.0, 0.0, 0.0, 0.0, 0.57, 0.57, 0.57, 1.14, 1.14, 1.16, 1.18, 1.1, 1.55, 2.51, 2.16, 1.8, 1.65, 1.65, 1.65, 1.65, 1.67, 2.36, 3.08, 2.84, 3.49, 3.49, 3.22, 3.47, 4.01, 4.11, 4.6, 4.38, 5.09, 6.51, 7.63, 7.07, 5.06, 3.79, 4.95, 4.8, 4.76, 0.78, -3.23, -3.95, -3.36, -2.28, 0.0, 0.0, -1.39, -1.16, 0.0, 1.16, 1.79, 2.9, 3.61, 4.31, 5.09, 5.0, 5.54, 5.77, 5.6, 6.4, 6.27, 5.89, 5.89, -0.56, -0.56, -0.57, -0.57, 0.0, 0.0, 0.0, 0.0, 0.0, 0.0, 0.0, 0.0, 0.0, -0.57, -0.57, -0.56, -1.18, -1.18, -1.73, -1.73, -1.76, -1.76, -1.76, -1.2, -1.2, -1.2, -1.12, -1.23, -0.83, -0.58, -0.57, 0.0, 0.0, 0.0, 0.0, 0.0, 0.57, 0.57, 0.57, 0.57, 1.14, 1.14, 1.16, 0.55, 0.59, 1.1, 1.76, 1.76, 1.65, 1.76, 1.2, 1.76, 1.76, 1.65, 2.32, 2.36, 2.84, 3.12, 3.12, 2.84, 3.11, 3.47, 3.48, 3.84, 4.15, 4.38, 4.22, 4.47, 4.74, 3.91, 3.22, 2.64, 2.33, 4.58, 4.04, 0.0, -1.66, -2.68, -3.4, -2.14, 0.0, 0.0, 0.0, 0.59, 1.18, 2.3, 3.5, 3.5, 4.06, 3.61, 4.31, 4.28, 5.13, 5.09, 6.0, 5.8, 5.6, 5.6, 0.0, 0.0, 0.0, 0.0, 0.0, 0.0, 0.0, 0.0, 0.0, 0.0, 0.0, 0.0, 0.0, -0.57, -0.56, -1.18, -1.18, -1.73, -1.73, -1.76, -1.76, -1.12, -1.12, -1.12, -1.12, -1.12, -1.12, -1.14, -1.14, -0.78, -0.53, 0.0, 0.0, 0.0, 0.0, 0.54, 0.57, 0.57, 0.57, 0.54, 0.57, 1.14, 1.16, 0.58, 0.59, 0.56, 1.2, 1.65, 1.65, 1.12, 1.12, 1.12, 1.65, 1.8, 2.32, 2.36, 2.84, 3.12, 2.84, 2.84, 2.82, 2.76, 3.79, 3.48, 4.6, 4.85, 3.47, 2.24, 1.8, 2.49, 2.64, 0.89, 0.0, 0.79, 3.96, 4.85, 1.7, -2.4, -3.22, -2.83, -0.71, 0.71, 0.7, 0.72, 1.16, 1.71, 2.33, 2.33, 2.34, 3.11, 3.27, 3.64, 3.64, 4.14, 4.31, 5.48, 4.92, 4.92, 0.0, 0.0, 0.0, 0.0, 0.0, 0.0, 0.0, 0.0, 0.0, 0.0, 0.0, 0.0, 0.0, -0.57, -1.1, -1.18, -1.73, -1.73, -1.76, -1.76, -1.8, -1.67, -1.14, -1.23, -1.12, -0.62, -0.58, -0.58, -0.58, -0.53, 0.0, 0.0, 0.0, 0.0, 0.0, 0.58, 0.54, 0.54, 0.54, 0.54, 0.58, 1.07, 1.16, 0.58, 0.55, 0.59, 1.2, 1.23, 1.14, 1.14, 0.58, 1.14, 1.23, 1.8, 1.8, 2.36, 2.18, 2.4, 2.4, 2.4, 3.45, 3.49, 3.79, 4.11, 4.19, 4.6, 4.0, 2.0, 0.0, 1.19, 3.22, 2.8, 1.23, 0.77, 3.2, 7.28, 5.73, 0.79, -2.29, -3.6, -2.23, 0.0, 0.71, 0.77, 1.44, 1.16, 1.78, 1.75, 2.23, 2.51, 2.6, 3.07, 3.07, 2.8, 2.99, 5.0, 5.09, 5.09, 0.0, 0.0, 0.0, 0.0, 0.0, 0.0, 0.0, 0.0, 0.0, 0.0, 0.0, 0.0, 0.0, -0.57, -0.56, -1.16, -1.71, -1.73, -2.29, -2.32, -1.67, -1.84, -1.26, -1.14, -0.58, -0.58, 0.0, 0.0, 0.0, 0.0, 0.0, 0.0, 0.0, 0.0, 0.0, 0.0, 0.58, 0.58, 0.54, 0.58, 0.58, 1.16, 1.16, 0.58, 0.55, 0.59, 1.1, 1.12, 1.14, 1.16, 0.59, 0.53, 0.58, 1.14, 1.67, 1.84, 1.7, 1.88, 2.2, 2.84, 2.84, 3.45, 3.76, 3.76, 5.01, 3.79, 2.84, 1.9, 2.6, 4.22, 4.46, 5.36, 3.91, 3.36, 3.96, 6.42, 8.2, 6.17, 0.82, -1.58, -2.29, -0.73, 0.0, 0.72, 1.52, 1.8, 1.8, 2.64, 2.6, 2.4, 2.4, 2.4, 2.4, 2.29, 3.0, 2.82, 4.2, 4.2, 0.0, 0.0, 0.0, 0.0, 0.0, 0.0, 0.0, 0.0, 0.0, 0.0, 0.0, 0.0, -0.57, -0.56, -1.18, -1.16, -1.71, -2.26, -2.29, -2.32, -1.7, -1.16, -1.07, -0.59, 0.0, 0.0, 0.0, 0.0, 0.0, 0.0, 0.0, 0.0, 0.0, 0.0, 0.0, 0.0, 0.0, 0.58, 0.58, 0.58, 0.58, 0.58, 1.16, 0.58, 0.55, 0.56, 0.56, 1.12, 1.14, 0.59, 0.59, 0.0, 0.0, 0.53, 1.14, 1.26, 1.7, 1.73, 2.2, 2.4, 2.82, 3.49, 3.45, 3.63, 3.63, 2.73, 1.9, 2.4, 4.02, 5.75, 6.61, 6.28, 6.01, 4.92, 3.91, 4.81, 7.0, 7.8, 5.46, 2.06, 0.0, -1.0, 0.0, 0.76, 1.49, 2.3, 2.53, 2.76, 2.4, 2.29, 2.47, 2.35, 1.72, 1.84, 2.12, 2.18, 3.51, 3.51, 0.0, 0.0, 0.0, 0.0, 0.0, 0.0, 0.0, 0.0, 0.0, 0.0, 0.0, 0.0, -0.61, -0.56, -1.09, -1.16, -1.71, -2.26, -2.29, -2.36, -1.7, -1.19, -0.55, 0.0, 0.0, 0.0, 0.0, 0.59, 0.59, 0.0, 0.0, 0.0, 0.0, 0.0, 0.0, 0.0, 0.0, 0.0, 0.0, 0.58, 0.55, 0.55, 1.09, 0.8, 0.56, 0.0, 0.61, 0.57, 1.23, 0.53, 0.0, 0.0, 0.0, 0.0, 0.59, 0.59, 1.19, 1.73, 2.2, 2.4, 2.82, 3.47, 3.45, 3.63, 3.22, 2.4, 1.74, 3.58, 5.36, 6.26, 6.21, 6.51, 7.07, 7.95, 6.56, 4.75, 4.1, 3.87, 3.93, 4.17, 2.26, 0.71, 0.0, 1.26, 2.6, 2.41, 3.07, 2.76, 2.47, 2.35, 2.51, 1.55, 1.65, 0.84, 0.76, 0.73, 0.71, 2.23, 0.0, 0.0, 0.0, 0.0, 0.0, 0.0, 0.0, 0.0, 0.0, 0.0, -0.57, -0.57, -0.56, -0.59, -1.09, -1.16, -1.16, -1.84, -2.29, -2.4, -2.22, -1.8, -1.27, -0.57, 0.0, 0.54, 0.59, 1.16, 0.59, 0.59, 0.0, 0.0, 0.0, 0.0, 0.0, 0.0, 0.0, 0.0, 0.0, 0.0, 0.0, 0.59, 0.59, 0.8, 0.56, 0.0, 0.0, 0.0, 0.58, 0.59, 0.54, 0.0, 0.0, 0.0, 0.0, 0.0, 1.19, 1.76, 2.2, 2.4, 3.04, 3.47, 3.91, 3.22, 3.22, 2.4, 4.09, 4.85, 5.81, 5.81, 6.26, 8.05, 8.63, 8.6, 8.72, 7.01, 3.87, 0.79, 0.0, 1.43, 2.53, 1.9, 1.0, 1.6, 2.54, 2.41, 2.2, 2.4, 1.72, 1.63, 1.55, 0.84, 0.8, 0.0, 0.0, 0.0, 0.79, 0.71, 0.0, 0.0, 0.0, 0.0, 0.0, 0.0, 0.0, -0.58, -0.58, -0.53, -0.57, -0.57, -0.56, -1.18, -1.16, -1.16, -1.71, -1.71, -2.29, -2.84, -2.86, -2.84, -1.84, 0.0, 1.13, 1.08, 1.07, 1.16, 1.16, 0.59, 0.59, 0.0, 0.0, 0.0, 0.0, 0.0, 0.0, 0.0, 0.0, 0.0, 0.0, 0.0, 0.0, 0.59, 0.8, 0.0, 0.0, 0.0, 0.59, 1.16, 0.54, 0.0, 0.0, 0.0, 0.0, 0.0, 1.19, 1.94, 2.4, 2.18, 3.04, 3.47, 3.47, 3.68, 3.76, 3.79, 3.58, 4.85, 5.75, 6.21, 7.6, 8.49, 8.87, 9.1, 11.3, 11.48, 8.62, 4.87, 1.6, 0.0, -0.0, 0.0, 0.0, 0.89, 1.6, 1.74, 1.49, 1.7, 1.6, 1.52, 0.79, 0.76, 0.0, 0.0, 0.76, 0.88, 1.49, 0.79, 0.0, 0.0, 0.0, 0.0, 0.0, 0.0, -0.53, -0.58, -0.58, -0.53, -0.57, -0.57, -0.56, -1.09, -1.16, -1.16, -1.69, -1.69, -1.71, -2.29, -3.49, -3.49, -1.11, 1.6, 2.86, 2.22, 1.88, 1.16, 1.16, 1.16, 0.59, 0.53, 0.0, 0.0, 0.0, 0.0, 0.0, 0.0, 0.0, 0.0, 0.0, 0.0, 0.0, 0.0, 0.0, 0.0, 0.0, 0.0, 0.59, 1.16, 1.16, 0.54, 0.0, 0.0, 0.0, 0.54, 1.19, 1.73, 1.88, 2.18, 2.82, 3.47, 3.68, 3.45, 3.76, 2.98, 2.53, 4.77, 5.75, 7.6, 8.9, 8.9, 8.41, 8.22, 9.48, 11.91, 12.67, 11.95, 8.72, 4.01, 1.58, 2.6, 0.0, 0.0, 0.0, 1.0, 1.8, 1.55, 1.6, 1.52, 0.78, 0.82, 0.81, 1.98, 1.9, 2.0, 2.0, 2.0, 0.0, 0.0, 0.0, 0.0, 0.0, 0.0, -0.53, -0.58, -0.58, -0.57, -0.57, -0.61, -0.56, -1.09, -1.16, -1.14, -1.14, -1.69, -1.78, -1.78, -2.33, -1.69, 1.16, 3.64, 3.47, 2.4, 1.7, 1.16, 1.16, 0.59, 0.59, 0.58, 0.0, 0.0, 0.0, 0.0, 0.0, 0.0, 0.0, 0.0, 0.0, 0.0, 0.0, 0.0, 0.0, 0.0, 0.0, 0.0, 0.58, 0.59, 1.16, 0.54, 0.54, 0.0, 0.59, 0.59, 1.19, 1.19, 1.19, 1.88, 2.4, 3.08, 3.08, 3.45, 3.76, 3.79, 4.8, 5.26, 7.15, 8.49, 8.9, 8.05, 7.5, 6.4, 6.28, 7.27, 10.15, 13.0, 13.78, 12.13, 9.08, 8.38, 5.13, 0.0, -0.0, 1.26, 1.8, 1.83, 1.83, 1.66, 1.6, 2.21, 2.4, 2.24, 1.79, 1.79, 1.79, 1.79, 0.0, 0.0, 0.0, 0.0, 0.0, -0.59, -0.53, -0.58, -1.14, -1.23, -1.12, -1.12, -1.1, -1.09, -1.16, -1.14, -1.14, -1.14, -1.12, -1.18, -1.16, 0.0, 1.71, 3.32, 2.92, 2.32, 1.26, 1.16, 0.59, 0.59, 0.53, 0.0, 0.0, 0.0, 0.0, 0.0, 0.0, 0.0, 0.0, 0.0, 0.0, 0.0, 0.0, 0.0, 0.0, 0.0, 0.0, 0.0, 0.0, 0.58, 1.16, 1.19, 0.61, 0.54, 0.54, 0.59, 0.54, 0.61, 1.19, 1.73, 2.44, 2.84, 3.49, 3.68, 3.76, 4.65, 6.61, 7.6, 8.05, 8.46, 7.6, 6.71, 5.51, 5.21, 4.11, 4.16, 6.57, 9.54, 12.07, 13.41, 13.97, 12.91, 9.81, 2.9, 0.0, 1.79, 2.97, 2.97, 2.68, 2.24, 2.24, 2.24, 2.24, 1.26, 1.26, 1.0, 1.0, 1.0, 0.0, 0.0, 0.0, 0.0, -0.53, -0.59, -0.53, -0.58, -1.14, -1.23, -1.12, -1.12, -1.1, -1.09, -0.58, -0.57, -1.14, -1.2, -1.12, -0.56, 0.0, 0.0, 1.18, 2.21, 2.4, 1.76, 1.12, 0.58, 0.58, 0.53, 0.0, 0.0, 0.0, 0.0, 0.0, 0.0, 0.0, 0.0, 0.0, 0.0, 0.0, 0.0, 0.0, 0.0, 0.0, 0.0, 0.0, -0.59, -0.56, 0.0, 0.54, 1.08, 1.08, 0.61, 0.61, 0.54, 0.54, 0.61, 0.63, 1.11, 2.48, 2.86, 3.12, 3.78, 5.06, 6.23, 7.06, 7.15, 8.05, 7.6, 7.15, 5.29, 4.57, 3.84, 4.46, 5.43, 6.32, 7.79, 9.54, 11.08, 12.56, 11.73, 9.99, 7.11, 3.16, 2.0, 2.54, 2.98, 2.21, 1.9, 2.21, 1.0, 1.0, -0.0, -0.0, -0.0, -0.0, -0.0, 0.0, 0.0, 0.0, -0.53, -0.59, -0.53, -0.58, -1.14, -1.14, -1.23, -1.12, -1.12, -1.1, -1.18, -1.16, -0.57, -0.57, -0.57, -0.56, 0.0, 0.0, 0.0, 1.14, 1.16, 1.18, 1.1, 1.1, 0.57, 0.57, 0.58, 0.0, 0.0, 0.0, 0.0, 0.0, 0.0, 0.0, 0.0, 0.0, 0.0, 0.0, 0.0, 0.0, 0.0, 0.0, 0.0, 0.0, -0.59, -0.56, 0.0, 0.54, 1.23, 1.23, 0.63, 0.55, 0.0, 0.0, 0.0, 0.66, 1.33, 2.51, 2.86, 3.15, 4.11, 5.01, 6.23, 6.14, 5.75, 5.75, 6.26, 4.92, 4.38, 4.38, 4.85, 6.2, 6.28, 6.39, 6.57, 7.79, 9.6, 11.29, 10.35, 8.71, 8.51, 4.84, 0.71, 0.76, 1.6, 0.98, 1.8, 1.4, 1.2, -0.0, -0.0, -0.0, -0.0, -0.0, -0.0, 0.0, 0.0, -0.53, -0.59, -0.59, -0.53, -0.58, -1.14, -1.14, -1.14, -1.12, -1.12, -1.2, -1.18, -1.09, -0.58, -0.57, -0.57, 0.0, 0.0, 0.0, 0.57, 0.58, 1.09, 1.1, 0.56, 0.59, 0.56, 0.61, 0.0, 0.0, 0.0, 0.0, 0.0, 0.0, 0.0, 0.0, 0.0, 0.0, 0.0, 0.0, 0.0, 0.0, 0.0, 0.0, 0.0, 0.0, 0.0, -0.56, -0.57, 0.0, 0.57, 1.11, 0.57, 0.0, 0.0, 0.0, 0.0, 0.59, 1.84, 2.51, 2.86, 3.15, 4.07, 4.93, 5.81, 5.64, 5.36, 4.92, 4.02, 4.02, 4.47, 5.36, 6.26, 6.65, 6.28, 5.77, 6.53, 7.24, 8.76, 9.7, 10.21, 10.48, 10.23, 5.43, -0.79, -0.73, -0.0, -0.0, 0.98, 1.13, 1.13, -0.0, -0.0, -0.0, -0.0, -0.0, -0.0, -0.58, -0.58, -0.53, -0.59, -0.59, -0.53, -1.14, -1.14, -1.14, -1.14, -1.12, -1.12, -1.2, -1.18, -1.18, -1.16, -0.58, -0.54, 0.0, 0.0, 0.0, 0.54, 0.58, 0.59, 0.56, 0.56, 0.0, 0.0, 0.0, 0.0, 0.0, 0.0, 0.0, 0.0, 0.0, 0.0, 0.0, 0.0, 0.0, 0.0, 0.0, 0.0, 0.0, 0.0, 0.0, 0.0, 0.0, 0.0, -0.56, -0.61, 0.0, 0.55, 0.57, 0.57, 0.0, 0.0, 0.0, 0.0, 1.13, 2.51, 3.16, 2.86, 3.16, 4.0, 4.8, 5.81, 5.64, 4.77, 4.02, 2.68, 3.47, 4.66, 6.2, 6.26, 6.21, 5.75, 5.46, 6.73, 7.9, 8.53, 8.76, 9.77, 12.02, 13.28, 8.55, -1.49, -2.29, -0.73, 0.73, 1.66, 2.0, 0.98, -0.0, -0.0, -0.0, -0.0, -0.0, -0.0, -0.58, -0.58, -0.53, -0.53, -0.53, -1.14, -1.14, -1.14, -1.14, -1.14, -1.12, -1.12, -1.2, -1.1, -1.18, -1.18, -0.55, -0.58, -0.58, 0.0, 0.0, 0.0, 0.55, 0.59, 0.0, 0.0, 0.0, 0.0, 0.0, 0.0, 0.0, 0.0, 0.0, 0.0, 0.0, 0.0, 0.0, 0.0, 0.0, 0.0, 0.0, 0.0, 0.0, 0.0, 0.0, 0.0, 0.0, 0.0, 0.0, -0.56, 0.0, 0.0, 0.63, 0.57, 0.0, 0.0, 0.0, 0.57, 2.22, 2.86, 2.86, 2.86, 3.16, 3.43, 4.52, 5.09, 5.09, 4.15, 2.97, 3.13, 4.38, 4.57, 5.59, 5.75, 5.81, 6.02, 5.82, 6.82, 7.68, 8.6, 8.85, 9.48, 11.82, 12.96, 10.01, 0.0, -0.0, 0.8, 1.58, 1.98, 1.8, 1.8, 0.87, -0.0, -0.0, -0.0, -0.0, -0.0, -0.58, -0.58, -0.58, -0.58, -1.14, -1.14, -1.14, -1.14, -1.14, -1.23, -1.12, -1.2, -1.2, -1.1, -1.18, -1.18, -1.18, -0.55, -0.55, -0.55, 0.0, 0.0, 0.0, 0.0, 0.0, 0.0, 0.0, 0.0, 0.0, 0.0, 0.0, 0.0, 0.0, 0.0, 0.0, 0.0, 0.0, 0.0, 0.0, 0.0, 0.0, 0.0, 0.0, 0.0, 0.0, 0.0, 0.0, 0.0, 0.0, -0.56, 0.0, 0.0, 0.54, 0.61, 0.0, 0.0, 0.0, 1.19, 2.2, 2.86, 2.48, 2.23, 2.84, 3.72, 4.11, 4.66, 4.6, 4.15, 4.47, 5.36, 5.81, 5.36, 4.38, 4.82, 4.92, 5.59, 6.16, 6.44, 7.44, 8.03, 8.6, 8.6, 9.23, 8.72, 6.42, 0.0, 0.76, 1.34, 1.26, 1.34, 1.58, 1.49, -0.0, -0.0, -0.0, 1.0, 1.0, 1.0, -0.58, -0.58, -0.58, -0.58, -1.14, -1.14, -1.14, -1.14, -1.14, -1.23, -1.12, -1.76, -1.76, -1.1, -1.1, -1.18, -1.18, -1.18, -0.59, -0.59, -0.55, 0.0, 0.0, 0.0, 0.0, 0.0, 0.0, 0.0, 0.0, 0.0, 0.0, 0.0, 0.0, 0.0, 0.0, 0.0, 0.0, 0.0, 0.0, 0.0, 0.0, 0.0, 0.0, 0.0, 0.0, 0.0, 0.0, 0.0, 0.0, 0.0, 0.0, 0.0, 0.0, 0.0, 0.0, 0.0, 0.59, 1.16, 1.7, 2.44, 1.8, 2.23, 2.53, 3.35, 4.11, 4.11, 4.15, 4.92, 5.75, 6.65, 6.26, 5.81, 5.36, 4.92, 4.92, 5.75, 6.16, 6.4, 6.44, 7.06, 8.03, 7.97, 7.08, 5.55, 1.39, 3.47, 2.6, -0.0, -0.89, -1.34, 0.0, -0.0, -0.0, -0.0, -0.0, 1.79, 1.79, 1.79, -0.58, -0.58, -0.58, -1.14, -1.14, -1.14, -1.14, -1.14, -1.23, -1.12, -1.65, -1.76, -1.76, -1.63, -1.1, -1.1, -1.18, -1.18, -1.18, -0.59, -0.59, -0.59, 0.0, -0.56, -0.56, 0.0, 0.0, 0.0, 0.0, 0.0, 0.0, 0.0, -0.57, -0.56, 0.0, 0.0, 0.0, 0.0, 0.0, 0.0, 0.0, 0.0, 0.0, 0.0, 0.0, 0.0, 0.0, 0.0, 0.0, 0.0, -0.61, 0.0, 0.0, 0.0, 0.0, 0.0, 0.58, 1.14, 1.16, 1.08, 1.8, 1.84, 2.53, 3.35, 3.6, 4.11, 4.38, 5.36, 5.59, 5.51, 5.29, 5.36, 5.36, 5.36, 4.92, 5.75, 6.45, 6.4, 6.8, 6.44, 7.06, 7.27, 7.08, 3.12, 2.9, 3.04, 1.9, 0.8, -1.0, -2.21, -1.74, -1.26, 0.0, 0.0, 1.34, 2.24, 2.24, 2.24, -1.14, -1.14, -1.14, -1.14, -1.14, -1.14, -1.14, -1.14, -1.23, -1.65, -1.76, -1.76, -1.63, -1.63, -1.1, -1.1, -1.1, -1.18, -1.18, -1.1, -0.56, -0.56, -0.56, -0.56, -0.56, -0.56, 0.0, 0.0, 0.0, 0.0, 0.0, 0.0, -0.57, -0.57, 0.0, 0.0, 0.0, 0.0, 0.0, 0.0, 0.0, 0.0, 0.0, 0.0, 0.0, 0.0, 0.0, 0.0, 0.0, 0.0, -0.61, 0.0, 0.0, 0.0, 0.0, 0.0, 0.57, 0.58, 1.16, 1.23, 1.13, 1.84, 2.53, 3.07, 3.6, 3.82, 3.98, 4.44, 4.57, 3.58, 4.0, 3.9, 4.47, 4.92, 5.36, 5.81, 6.65, 6.94, 6.8, 6.8, 6.82, 7.02, 6.47, 7.88, 5.21, 0.79, 0.73, 0.79, -0.0, -1.47, -1.66, -1.58, -1.34, 0.0, 2.24, 3.9, 3.9, 3.9, -1.14, -1.14, -1.14, -1.14, -1.14, -1.14, -1.14, -1.23, -1.8, -1.65, -1.76, -1.76, -1.63, -1.63, -1.63, -1.63, -1.1, -1.18, -1.1, -1.1, -1.1, -0.56, -0.56, -0.56, -0.56, -0.61, -0.57, 0.0, 0.0, 0.0, 0.0, 0.0, 0.0, 0.0, 0.0, 0.0, 0.0, 0.0, 0.0, 0.0, 0.0, 0.0, 0.0, 0.0, 0.0, 0.0, 0.0, 0.0, 0.0, -0.56, -0.61, 0.0, 0.0, 0.0, 0.0, 0.0, 0.0, 0.58, 0.54, 0.57, 1.13, 1.84, 2.53, 3.07, 3.07, 3.32, 3.97, 4.02, 4.0, 3.6, 3.6, 3.9, 4.02, 4.92, 4.92, 5.29, 6.26, 6.21, 6.28, 6.16, 6.21, 6.44, 7.25, 9.55, 7.38, 1.26, -0.0, -0.0, -0.0, -0.72, -1.41, -0.8, 0.0, 2.24, 3.47, 4.8, 4.8, 4.8, -1.14, -1.14, -1.14, -1.14, -1.14, -1.14, -1.23, -1.8, -1.65, -1.65, -1.76, -1.76, -1.63, -1.73, -1.73, -1.63, -1.63, -1.1, -1.1, -1.1, -1.1, -0.61, -0.61, -0.56, 0.0, 0.0, -0.57, -0.57, -0.57, -0.61, -0.56, 0.0, 0.0, 0.0, 0.0, 0.0, 0.0, 0.0, 0.0, 0.0, 0.0, 0.0, 0.0, 0.0, 0.0, 0.0, 0.0, 0.0, 0.0, -0.56, -0.61, -0.57, 0.0, 0.0, 0.0, 0.0, 0.0, 0.0, 0.0, 0.57, 1.33, 1.61, 2.21, 2.5, 2.5, 2.8, 3.07, 3.58, 3.53, 3.47, 3.47, 3.95, 4.47, 4.92, 5.36, 4.57, 4.57, 5.36, 5.29, 5.51, 5.2, 5.24, 5.76, 6.4, 6.54, 0.83, -1.49, -0.0, -0.0, -0.73, -0.7, 0.8, 3.13, 4.0, 5.2, 6.8, 6.8, 6.8, -1.14, -1.14, -1.14, -1.14, -1.14, -1.14, -1.8, -1.8, -1.65, -1.76, -1.76, -1.76, -1.63, -1.73, -1.73, -1.63, -1.63, -1.1, -1.1, -1.1, -1.1, -1.2, -0.57, -0.57, -0.57, -0.57, -0.57, -0.57, -0.57, -0.57, -0.57, -0.57, 0.0, 0.0, -0.57, 0.0, 0.0, 0.0, 0.0, 0.0, 0.0, 0.0, -0.57, -0.57, -0.57, -0.57, 0.0, 0.0, 0.0, -0.56, -0.61, 0.0, 0.0, 0.0, 0.0, 0.0, 0.0, 0.0, 0.0, 0.59, 1.16, 1.61, 1.88, 2.5, 1.9, 1.86, 2.68, 3.13, 3.13, 3.58, 3.47, 4.38, 4.85, 5.29, 5.29, 4.98, 3.93, 4.82, 4.47, 4.38, 3.93, 3.22, 2.44, 2.37, 2.32, 0.76, -2.84, -2.3, -1.6, -1.0, -0.0, 2.68, 5.16, 5.82, 6.82, 7.44, 7.44, 7.44, -1.14, -1.14, -1.14, -1.14, -1.14, -1.8, -1.8, -1.65, -1.65, -1.76, -1.76, -1.76, -1.73, -1.73, -1.63, -1.63, -1.63, -1.1, -1.1, -1.1, -1.1, -1.2, -1.12, -1.12, -0.57, -0.57, -0.57, -0.57, -0.57, -0.57, -0.57, -0.57, -0.57, -0.57, -0.57, -0.58, 0.0, 0.0, 0.0, 0.0, -0.58, -0.58, -0.58, -0.57, -0.57, -0.57, -0.57, 0.0, 0.0, -0.61, -0.61, -0.58, 0.0, 0.0, 0.0, 0.0, 0.0, 0.0, 0.0, 0.59, 0.61, 1.4, 1.61, 1.9, 1.24, 1.6, 2.24, 2.68, 2.68, 3.13, 3.47, 3.6, 4.57, 4.57, 4.22, 3.58, 3.58, 2.84, 3.13, 2.97, 1.98, 1.55, 0.84, 0.83, 0.0, 0.0, -1.6, -3.07, -2.24, -0.8, 0.99, 3.84, 6.07, 7.42, 8.05, 8.06, 8.06, 8.06, -1.23, -1.23, -1.14, -1.14, -1.67, -1.8, -1.8, -1.65, -1.65, -1.76, -1.76, -1.76, -1.63, -1.63, -1.63, -1.63, -1.76, -1.2, -1.2, -1.2, -1.2, -1.2, -1.2, -1.12, -1.12, -0.57, -0.62, -0.58, -0.57, -0.57, -0.57, -0.57, -0.57, -0.58, -0.58, -0.58, -0.58, -0.58, -0.58, -0.58, -0.58, -0.58, -0.58, -0.57, -0.57, -0.57, -0.57, -0.57, 0.0, -0.57, -0.57, -0.58, 0.0, 0.0, 0.0, 0.0, 0.0, 0.0, 0.0, 0.0, 0.61, 1.2, 1.2, 1.24, 0.57, 0.95, 1.34, 1.79, 1.79, 2.24, 2.6, 3.39, 3.6, 3.58, 3.16, 2.68, 2.84, 2.53, 2.0, 2.68, 1.74, 0.96, 0.84, 0.83, 0.0, 0.0, 0.0, -0.68, -0.76, 0.0, 2.26, 4.46, 6.68, 8.06, 8.06, 8.03, 8.03, 8.03, -1.23, -1.23, -1.67, -1.67, -1.8, -1.8, -1.8, -1.65, -1.65, -1.76, -1.76, -1.76, -1.76, -1.76, -1.76, -1.76, -1.76, -1.76, -1.2, -1.2, -1.2, -1.2, -1.2, -1.12, -1.12, -0.58, -0.58, -0.58, -0.57, -0.57, -0.57, -0.53, -0.58, -0.58, -0.58, -0.58, -0.58, -0.58, -0.58, -0.58, -0.58, -0.58, -0.58, -0.58, -0.57, -0.57, -0.57, -0.57, -0.57, -0.57, -0.57, -0.58, 0.0, 0.0, 0.0, 0.0, 0.0, 0.0, 0.0, 0.0, 0.61, 0.65, 0.65, 0.54, 0.0, 0.63, 0.89, 0.95, 1.34, 1.79, 2.24, 3.13, 3.39, 2.84, 2.84, 1.8, 2.23, 2.21, 2.4, 1.79, 1.2, 0.96, 0.79, 0.76, 1.59, 1.58, 0.78, 0.8, 1.45, 2.06, 2.89, 4.5, 6.28, 6.98, 6.98, 6.68, 6.68, 6.68, -1.65, -1.65, -1.8, -1.8, -1.8, -1.8, -1.8, -1.65, -1.65, -1.76, -1.76, -1.76, -1.76, -1.76, -1.76, -1.76, -1.76, -1.2, -1.2, -1.2, -1.2, -1.2, -1.12, -1.12, -0.57, -0.58, -0.58, -0.58, -0.58, -0.58, -0.58, -0.58, -0.58, -0.58, -0.58, -0.58, -0.58, -0.58, -0.58, -0.58, -0.58, -0.58, -0.58, -0.58, -0.58, -0.57, -0.57, -0.57, -0.57, -0.57, -0.58, -0.58, 0.0, 0.0, 0.0, 0.0, 0.0, 0.0, 0.0, 0.0, 0.0, 0.0, 0.0, 0.0, 0.0, 0.0, 0.0, 0.89, 0.89, 1.34, 1.79, 2.24, 2.68, 3.6, 2.53, 1.8, 1.13, 2.21, 2.4, 2.24, 2.0, 0.88, 0.78, 0.82, 1.53, 3.26, 4.01, 3.91, 3.32, 4.01, 4.13, 4.83, 5.94, 5.94, 5.64, 5.24, 5.24, 5.24, -1.65, -1.65, -1.8, -1.8, -1.8, -1.8, -1.8, -1.65, -1.65, -1.76, -1.76, -1.76, -1.76, -1.76, -1.76, -1.76, -1.76, -1.2, -1.2, -1.2, -1.2, -1.2, -1.12, -1.12, -0.57, -0.58, -0.58, -0.58, -0.58, -0.58, -0.58, -0.58, -0.58, -0.58, -0.58, -0.58, -0.58, -0.58, -0.58, -0.58, -0.58, -0.58, -0.58, -0.58, -0.58, -0.57, -0.57, -0.57, -0.57, -0.57, -0.58, -0.58, 0.0, 0.0, 0.0, 0.0, 0.0, 0.0, 0.0, 0.0, 0.0, 0.0, 0.0, 0.0, 0.0, 0.0, 0.0, 0.89, 0.89, 1.34, 1.79, 2.24, 2.68, 3.6, 2.53, 1.8, 0.99, 2.21, 2.4, 2.24, 2.0, 1.8, 1.72, 1.52, 2.37, 3.98, 5.61, 6.35, 5.55, 5.8, 5.51, 5.9, 5.76, 5.89, 5.24, 4.16, 4.16, 4.16]}]